<?xml version="1.0" encoding="UTF-8" standalone="no" ?>
<gpx xmlns="http://www.topografix.com/GPX/1/1" xmlns:xsi="http://www.w3.org/2001/XMLSchema-instance" xsi:schemaLocation="http://www.topografix.com/GPX/1/1 http://www.topografix.com/GPX/1/1/gpx.xsd" version="1.1" creator="VisuGPX - https://www.visugpx.com">
  <metadata>
    <name>Dimanche 1er mars 26</name>
  </metadata>
  <trk>
    <name><![CDATA[Dimanche 1er mars 2026]]></name>
    <extensions>
      <line xmlns="http://www.topografix.com/GPX/gpx_style/0/2">
        <width>7</width>
      </line>
    </extensions>
    <trkseg>
      <trkpt lat="43.38306" lon="-1.65904">
        <ele>4</ele>
        <time>2026-02-12T13:04:14.000Z</time>
      </trkpt>
      <trkpt lat="43.38309" lon="-1.65902">
        <ele>5</ele>
        <time>2026-02-12T13:04:15.000Z</time>
      </trkpt>
      <trkpt lat="43.38298" lon="-1.65877">
        <ele>4</ele>
        <time>2026-02-12T13:04:18.000Z</time>
      </trkpt>
      <trkpt lat="43.38234" lon="-1.65703">
        <ele>4</ele>
        <time>2026-02-12T13:04:44.000Z</time>
      </trkpt>
      <trkpt lat="43.38233" lon="-1.65687">
        <ele>4</ele>
        <time>2026-02-12T13:04:46.000Z</time>
      </trkpt>
      <trkpt lat="43.38236" lon="-1.65679">
        <ele>4</ele>
        <time>2026-02-12T13:04:47.000Z</time>
      </trkpt>
      <trkpt lat="43.38252" lon="-1.65655">
        <ele>4</ele>
        <time>2026-02-12T13:04:51.000Z</time>
      </trkpt>
      <trkpt lat="43.38351" lon="-1.65522">
        <ele>4</ele>
        <time>2026-02-12T13:05:16.000Z</time>
      </trkpt>
      <trkpt lat="43.38357" lon="-1.65509">
        <ele>4</ele>
        <time>2026-02-12T13:05:18.000Z</time>
      </trkpt>
      <trkpt lat="43.38352" lon="-1.65508">
        <ele>4</ele>
        <time>2026-02-12T13:05:19.000Z</time>
      </trkpt>
      <trkpt lat="43.38328" lon="-1.65473">
        <ele>4</ele>
        <time>2026-02-12T13:05:25.000Z</time>
      </trkpt>
      <trkpt lat="43.38325" lon="-1.65465">
        <ele>4</ele>
        <time>2026-02-12T13:05:26.000Z</time>
      </trkpt>
      <trkpt lat="43.38326" lon="-1.65462">
        <ele>4</ele>
        <time>2026-02-12T13:05:26.000Z</time>
      </trkpt>
      <trkpt lat="43.38327" lon="-1.65457">
        <ele>4</ele>
        <time>2026-02-12T13:05:27.000Z</time>
      </trkpt>
      <trkpt lat="43.38331" lon="-1.65453">
        <ele>5</ele>
        <time>2026-02-12T13:05:28.000Z</time>
      </trkpt>
      <trkpt lat="43.3837" lon="-1.65376">
        <ele>5</ele>
        <time>2026-02-12T13:05:40.000Z</time>
      </trkpt>
      <trkpt lat="43.3839" lon="-1.65332">
        <ele>6</ele>
        <time>2026-02-12T13:05:47.000Z</time>
      </trkpt>
      <trkpt lat="43.38394" lon="-1.65317">
        <ele>8</ele>
        <time>2026-02-12T13:05:49.000Z</time>
      </trkpt>
      <trkpt lat="43.38392" lon="-1.65295">
        <ele>10</ele>
        <time>2026-02-12T13:05:52.000Z</time>
      </trkpt>
      <trkpt lat="43.38384" lon="-1.65266">
        <ele>13</ele>
        <time>2026-02-12T13:05:56.000Z</time>
      </trkpt>
      <trkpt lat="43.38365" lon="-1.65248">
        <ele>13</ele>
        <time>2026-02-12T13:06:00.000Z</time>
      </trkpt>
      <trkpt lat="43.3836" lon="-1.65239">
        <ele>13</ele>
        <time>2026-02-12T13:06:01.000Z</time>
      </trkpt>
      <trkpt lat="43.38356" lon="-1.65227">
        <ele>13</ele>
        <time>2026-02-12T13:06:03.000Z</time>
      </trkpt>
      <trkpt lat="43.38343" lon="-1.652">
        <ele>12</ele>
        <time>2026-02-12T13:06:07.000Z</time>
      </trkpt>
      <trkpt lat="43.38276" lon="-1.65016">
        <ele>9</ele>
        <time>2026-02-12T13:06:34.000Z</time>
      </trkpt>
      <trkpt lat="43.3826" lon="-1.64971">
        <ele>8</ele>
        <time>2026-02-12T13:06:40.000Z</time>
      </trkpt>
      <trkpt lat="43.38254" lon="-1.64945">
        <ele>8</ele>
        <time>2026-02-12T13:06:44.000Z</time>
      </trkpt>
      <trkpt lat="43.38252" lon="-1.64928">
        <ele>8</ele>
        <time>2026-02-12T13:06:46.000Z</time>
      </trkpt>
      <trkpt lat="43.38255" lon="-1.6488">
        <ele>9</ele>
        <time>2026-02-12T13:06:52.000Z</time>
      </trkpt>
      <trkpt lat="43.38279" lon="-1.64626">
        <ele>7</ele>
        <time>2026-02-12T13:07:25.000Z</time>
      </trkpt>
      <trkpt lat="43.3828" lon="-1.64595">
        <ele>8</ele>
        <time>2026-02-12T13:07:29.000Z</time>
      </trkpt>
      <trkpt lat="43.38277" lon="-1.64488">
        <ele>10</ele>
        <time>2026-02-12T13:07:43.000Z</time>
      </trkpt>
      <trkpt lat="43.38272" lon="-1.64424">
        <ele>8</ele>
        <time>2026-02-12T13:07:52.000Z</time>
      </trkpt>
      <trkpt lat="43.38264" lon="-1.64383">
        <ele>7</ele>
        <time>2026-02-12T13:07:57.000Z</time>
      </trkpt>
      <trkpt lat="43.3825" lon="-1.64341">
        <ele>5</ele>
        <time>2026-02-12T13:08:03.000Z</time>
      </trkpt>
      <trkpt lat="43.38232" lon="-1.64309">
        <ele>5</ele>
        <time>2026-02-12T13:08:08.000Z</time>
      </trkpt>
      <trkpt lat="43.38212" lon="-1.64283">
        <ele>5</ele>
        <time>2026-02-12T13:08:13.000Z</time>
      </trkpt>
      <trkpt lat="43.38155" lon="-1.6423">
        <ele>6</ele>
        <time>2026-02-12T13:08:25.000Z</time>
      </trkpt>
      <trkpt lat="43.3812" lon="-1.64193">
        <ele>6</ele>
        <time>2026-02-12T13:08:33.000Z</time>
      </trkpt>
      <trkpt lat="43.38056" lon="-1.64058">
        <ele>9</ele>
        <time>2026-02-12T13:08:54.000Z</time>
      </trkpt>
      <trkpt lat="43.37906" lon="-1.63917">
        <ele>6</ele>
        <time>2026-02-12T13:09:26.000Z</time>
      </trkpt>
      <trkpt lat="43.37776" lon="-1.63786">
        <ele>8</ele>
        <time>2026-02-12T13:09:55.000Z</time>
      </trkpt>
      <trkpt lat="43.37759" lon="-1.63774">
        <ele>8</ele>
        <time>2026-02-12T13:09:58.000Z</time>
      </trkpt>
      <trkpt lat="43.37738" lon="-1.63772">
        <ele>8</ele>
        <time>2026-02-12T13:10:02.000Z</time>
      </trkpt>
      <trkpt lat="43.37642" lon="-1.63776">
        <ele>6</ele>
        <time>2026-02-12T13:10:19.000Z</time>
      </trkpt>
      <trkpt lat="43.37604" lon="-1.63785">
        <ele>6</ele>
        <time>2026-02-12T13:10:26.000Z</time>
      </trkpt>
      <trkpt lat="43.37541" lon="-1.63786">
        <ele>5</ele>
        <time>2026-02-12T13:10:37.000Z</time>
      </trkpt>
      <trkpt lat="43.37526" lon="-1.63781">
        <ele>5</ele>
        <time>2026-02-12T13:10:40.000Z</time>
      </trkpt>
      <trkpt lat="43.37522" lon="-1.6382">
        <ele>4</ele>
        <time>2026-02-12T13:10:45.000Z</time>
      </trkpt>
      <trkpt lat="43.37537" lon="-1.6382">
        <ele>4</ele>
        <time>2026-02-12T13:10:48.000Z</time>
      </trkpt>
      <trkpt lat="43.3755" lon="-1.63806">
        <ele>5</ele>
        <time>2026-02-12T13:10:51.000Z</time>
      </trkpt>
      <trkpt lat="43.37604" lon="-1.63803">
        <ele>5</ele>
        <time>2026-02-12T13:11:00.000Z</time>
      </trkpt>
      <trkpt lat="43.3755" lon="-1.63806">
        <ele>5</ele>
        <time>2026-02-12T13:11:10.000Z</time>
      </trkpt>
      <trkpt lat="43.37537" lon="-1.6382">
        <ele>4</ele>
        <time>2026-02-12T13:11:13.000Z</time>
      </trkpt>
      <trkpt lat="43.37522" lon="-1.6382">
        <ele>4</ele>
        <time>2026-02-12T13:11:16.000Z</time>
      </trkpt>
      <trkpt lat="43.37516" lon="-1.63818">
        <ele>4</ele>
        <time>2026-02-12T13:11:17.000Z</time>
      </trkpt>
      <trkpt lat="43.37513" lon="-1.63814">
        <ele>4</ele>
        <time>2026-02-12T13:11:18.000Z</time>
      </trkpt>
      <trkpt lat="43.3751" lon="-1.63791">
        <ele>4</ele>
        <time>2026-02-12T13:11:21.000Z</time>
      </trkpt>
      <trkpt lat="43.37445" lon="-1.63794">
        <ele>4</ele>
        <time>2026-02-12T13:11:32.000Z</time>
      </trkpt>
      <trkpt lat="43.37409" lon="-1.63788">
        <ele>4</ele>
        <time>2026-02-12T13:11:39.000Z</time>
      </trkpt>
      <trkpt lat="43.37111" lon="-1.63806">
        <ele>5</ele>
        <time>2026-02-12T13:12:32.000Z</time>
      </trkpt>
      <trkpt lat="43.37085" lon="-1.63801">
        <ele>6</ele>
        <time>2026-02-12T13:12:36.000Z</time>
      </trkpt>
      <trkpt lat="43.37067" lon="-1.63794">
        <ele>6</ele>
        <time>2026-02-12T13:12:40.000Z</time>
      </trkpt>
      <trkpt lat="43.36753" lon="-1.63597">
        <ele>7</ele>
        <time>2026-02-12T13:13:41.000Z</time>
      </trkpt>
      <trkpt lat="43.36709" lon="-1.63582">
        <ele>8</ele>
        <time>2026-02-12T13:13:49.000Z</time>
      </trkpt>
      <trkpt lat="43.36675" lon="-1.63576">
        <ele>8</ele>
        <time>2026-02-12T13:13:55.000Z</time>
      </trkpt>
      <trkpt lat="43.36638" lon="-1.63578">
        <ele>7</ele>
        <time>2026-02-12T13:14:02.000Z</time>
      </trkpt>
      <trkpt lat="43.36595" lon="-1.63589">
        <ele>5</ele>
        <time>2026-02-12T13:14:10.000Z</time>
      </trkpt>
      <trkpt lat="43.36349" lon="-1.63669">
        <ele>7</ele>
        <time>2026-02-12T13:14:55.000Z</time>
      </trkpt>
      <trkpt lat="43.36308" lon="-1.63673">
        <ele>7</ele>
        <time>2026-02-12T13:15:02.000Z</time>
      </trkpt>
      <trkpt lat="43.36277" lon="-1.63671">
        <ele>6</ele>
        <time>2026-02-12T13:15:07.000Z</time>
      </trkpt>
      <trkpt lat="43.36255" lon="-1.63666">
        <ele>6</ele>
        <time>2026-02-12T13:15:11.000Z</time>
      </trkpt>
      <trkpt lat="43.36233" lon="-1.63658">
        <ele>6</ele>
        <time>2026-02-12T13:15:15.000Z</time>
      </trkpt>
      <trkpt lat="43.36097" lon="-1.63603">
        <ele>5</ele>
        <time>2026-02-12T13:15:41.000Z</time>
      </trkpt>
      <trkpt lat="43.36075" lon="-1.63589">
        <ele>5</ele>
        <time>2026-02-12T13:15:45.000Z</time>
      </trkpt>
      <trkpt lat="43.36061" lon="-1.63577">
        <ele>5</ele>
        <time>2026-02-12T13:15:48.000Z</time>
      </trkpt>
      <trkpt lat="43.36039" lon="-1.63549">
        <ele>6</ele>
        <time>2026-02-12T13:15:53.000Z</time>
      </trkpt>
      <trkpt lat="43.36029" lon="-1.63531">
        <ele>6</ele>
        <time>2026-02-12T13:15:56.000Z</time>
      </trkpt>
      <trkpt lat="43.36014" lon="-1.63501">
        <ele>6</ele>
        <time>2026-02-12T13:16:01.000Z</time>
      </trkpt>
      <trkpt lat="43.35995" lon="-1.63453">
        <ele>8</ele>
        <time>2026-02-12T13:16:08.000Z</time>
      </trkpt>
      <trkpt lat="43.35984" lon="-1.63434">
        <ele>8</ele>
        <time>2026-02-12T13:16:11.000Z</time>
      </trkpt>
      <trkpt lat="43.35935" lon="-1.63358">
        <ele>9</ele>
        <time>2026-02-12T13:16:24.000Z</time>
      </trkpt>
      <trkpt lat="43.35921" lon="-1.63341">
        <ele>8</ele>
        <time>2026-02-12T13:16:28.000Z</time>
      </trkpt>
      <trkpt lat="43.35859" lon="-1.6328">
        <ele>9</ele>
        <time>2026-02-12T13:16:41.000Z</time>
      </trkpt>
      <trkpt lat="43.35789" lon="-1.63219">
        <ele>9</ele>
        <time>2026-02-12T13:16:56.000Z</time>
      </trkpt>
      <trkpt lat="43.3575" lon="-1.63192">
        <ele>7</ele>
        <time>2026-02-12T13:17:04.000Z</time>
      </trkpt>
      <trkpt lat="43.35673" lon="-1.63163">
        <ele>6</ele>
        <time>2026-02-12T13:17:18.000Z</time>
      </trkpt>
      <trkpt lat="43.35667" lon="-1.63163">
        <ele>6</ele>
        <time>2026-02-12T13:17:19.000Z</time>
      </trkpt>
      <trkpt lat="43.35663" lon="-1.63166">
        <ele>6</ele>
        <time>2026-02-12T13:17:20.000Z</time>
      </trkpt>
      <trkpt lat="43.35657" lon="-1.63166">
        <ele>6</ele>
        <time>2026-02-12T13:17:21.000Z</time>
      </trkpt>
      <trkpt lat="43.35638" lon="-1.63154">
        <ele>6</ele>
        <time>2026-02-12T13:17:24.000Z</time>
      </trkpt>
      <trkpt lat="43.35614" lon="-1.63148">
        <ele>5</ele>
        <time>2026-02-12T13:17:29.000Z</time>
      </trkpt>
      <trkpt lat="43.3544" lon="-1.63097">
        <ele>6</ele>
        <time>2026-02-12T13:18:00.000Z</time>
      </trkpt>
      <trkpt lat="43.35403" lon="-1.63082">
        <ele>7</ele>
        <time>2026-02-12T13:18:07.000Z</time>
      </trkpt>
      <trkpt lat="43.35386" lon="-1.63073">
        <ele>7</ele>
        <time>2026-02-12T13:18:11.000Z</time>
      </trkpt>
      <trkpt lat="43.3535" lon="-1.63044">
        <ele>7</ele>
        <time>2026-02-12T13:18:18.000Z</time>
      </trkpt>
      <trkpt lat="43.35306" lon="-1.62998">
        <ele>6</ele>
        <time>2026-02-12T13:18:28.000Z</time>
      </trkpt>
      <trkpt lat="43.35289" lon="-1.62974">
        <ele>6</ele>
        <time>2026-02-12T13:18:32.000Z</time>
      </trkpt>
      <trkpt lat="43.35268" lon="-1.62932">
        <ele>6</ele>
        <time>2026-02-12T13:18:39.000Z</time>
      </trkpt>
      <trkpt lat="43.35255" lon="-1.629">
        <ele>6</ele>
        <time>2026-02-12T13:18:43.000Z</time>
      </trkpt>
      <trkpt lat="43.35207" lon="-1.62759">
        <ele>8</ele>
        <time>2026-02-12T13:19:04.000Z</time>
      </trkpt>
      <trkpt lat="43.35118" lon="-1.62528">
        <ele>12</ele>
        <time>2026-02-12T13:19:37.000Z</time>
      </trkpt>
      <trkpt lat="43.35108" lon="-1.62493">
        <ele>11</ele>
        <time>2026-02-12T13:19:42.000Z</time>
      </trkpt>
      <trkpt lat="43.35103" lon="-1.62461">
        <ele>10</ele>
        <time>2026-02-12T13:19:47.000Z</time>
      </trkpt>
      <trkpt lat="43.35103" lon="-1.62402">
        <ele>11</ele>
        <time>2026-02-12T13:19:54.000Z</time>
      </trkpt>
      <trkpt lat="43.35109" lon="-1.62334">
        <ele>10</ele>
        <time>2026-02-12T13:20:03.000Z</time>
      </trkpt>
      <trkpt lat="43.35118" lon="-1.62308">
        <ele>11</ele>
        <time>2026-02-12T13:20:07.000Z</time>
      </trkpt>
      <trkpt lat="43.35181" lon="-1.62185">
        <ele>11</ele>
        <time>2026-02-12T13:20:26.000Z</time>
      </trkpt>
      <trkpt lat="43.35201" lon="-1.62157">
        <ele>12</ele>
        <time>2026-02-12T13:20:31.000Z</time>
      </trkpt>
      <trkpt lat="43.35214" lon="-1.62143">
        <ele>12</ele>
        <time>2026-02-12T13:20:34.000Z</time>
      </trkpt>
      <trkpt lat="43.3524" lon="-1.62126">
        <ele>14</ele>
        <time>2026-02-12T13:20:39.000Z</time>
      </trkpt>
      <trkpt lat="43.35407" lon="-1.6206">
        <ele>21</ele>
        <time>2026-02-12T13:21:10.000Z</time>
      </trkpt>
      <trkpt lat="43.35432" lon="-1.62045">
        <ele>21</ele>
        <time>2026-02-12T13:21:15.000Z</time>
      </trkpt>
      <trkpt lat="43.35486" lon="-1.62001">
        <ele>18</ele>
        <time>2026-02-12T13:21:26.000Z</time>
      </trkpt>
      <trkpt lat="43.35515" lon="-1.61963">
        <ele>18</ele>
        <time>2026-02-12T13:21:33.000Z</time>
      </trkpt>
      <trkpt lat="43.35787" lon="-1.61535">
        <ele>14</ele>
        <time>2026-02-12T13:22:47.000Z</time>
      </trkpt>
      <trkpt lat="43.35815" lon="-1.61503">
        <ele>12</ele>
        <time>2026-02-12T13:22:53.000Z</time>
      </trkpt>
      <trkpt lat="43.35913" lon="-1.61419">
        <ele>16</ele>
        <time>2026-02-12T13:23:14.000Z</time>
      </trkpt>
      <trkpt lat="43.35934" lon="-1.61396">
        <ele>16</ele>
        <time>2026-02-12T13:23:19.000Z</time>
      </trkpt>
      <trkpt lat="43.36033" lon="-1.61268">
        <ele>11</ele>
        <time>2026-02-12T13:23:43.000Z</time>
      </trkpt>
      <trkpt lat="43.36051" lon="-1.61238">
        <ele>11</ele>
        <time>2026-02-12T13:23:48.000Z</time>
      </trkpt>
      <trkpt lat="43.36075" lon="-1.61188">
        <ele>12</ele>
        <time>2026-02-12T13:23:56.000Z</time>
      </trkpt>
      <trkpt lat="43.36091" lon="-1.61139">
        <ele>13</ele>
        <time>2026-02-12T13:24:03.000Z</time>
      </trkpt>
      <trkpt lat="43.36101" lon="-1.61078">
        <ele>15</ele>
        <time>2026-02-12T13:24:11.000Z</time>
      </trkpt>
      <trkpt lat="43.36105" lon="-1.61018">
        <ele>17</ele>
        <time>2026-02-12T13:24:19.000Z</time>
      </trkpt>
      <trkpt lat="43.36113" lon="-1.60838">
        <ele>16</ele>
        <time>2026-02-12T13:24:42.000Z</time>
      </trkpt>
      <trkpt lat="43.36119" lon="-1.6075">
        <ele>18</ele>
        <time>2026-02-12T13:24:53.000Z</time>
      </trkpt>
      <trkpt lat="43.36118" lon="-1.60724">
        <ele>18</ele>
        <time>2026-02-12T13:24:57.000Z</time>
      </trkpt>
      <trkpt lat="43.36104" lon="-1.60585">
        <ele>18</ele>
        <time>2026-02-12T13:25:15.000Z</time>
      </trkpt>
      <trkpt lat="43.36102" lon="-1.60551">
        <ele>17</ele>
        <time>2026-02-12T13:25:19.000Z</time>
      </trkpt>
      <trkpt lat="43.36102" lon="-1.60518">
        <ele>17</ele>
        <time>2026-02-12T13:25:24.000Z</time>
      </trkpt>
      <trkpt lat="43.36103" lon="-1.60494">
        <ele>17</ele>
        <time>2026-02-12T13:25:27.000Z</time>
      </trkpt>
      <trkpt lat="43.36109" lon="-1.60462">
        <ele>16</ele>
        <time>2026-02-12T13:25:31.000Z</time>
      </trkpt>
      <trkpt lat="43.36116" lon="-1.60439">
        <ele>16</ele>
        <time>2026-02-12T13:25:34.000Z</time>
      </trkpt>
      <trkpt lat="43.36126" lon="-1.60409">
        <ele>15</ele>
        <time>2026-02-12T13:25:38.000Z</time>
      </trkpt>
      <trkpt lat="43.36138" lon="-1.60384">
        <ele>15</ele>
        <time>2026-02-12T13:25:42.000Z</time>
      </trkpt>
      <trkpt lat="43.36153" lon="-1.60362">
        <ele>14</ele>
        <time>2026-02-12T13:25:46.000Z</time>
      </trkpt>
      <trkpt lat="43.36173" lon="-1.60338">
        <ele>13</ele>
        <time>2026-02-12T13:25:51.000Z</time>
      </trkpt>
      <trkpt lat="43.36211" lon="-1.60302">
        <ele>16</ele>
        <time>2026-02-12T13:25:59.000Z</time>
      </trkpt>
      <trkpt lat="43.36215" lon="-1.60314">
        <ele>17</ele>
        <time>2026-02-12T13:26:01.000Z</time>
      </trkpt>
      <trkpt lat="43.36218" lon="-1.60322">
        <ele>18</ele>
        <time>2026-02-12T13:26:02.000Z</time>
      </trkpt>
      <trkpt lat="43.36249" lon="-1.60293">
        <ele>19</ele>
        <time>2026-02-12T13:26:09.000Z</time>
      </trkpt>
      <trkpt lat="43.3629" lon="-1.60246">
        <ele>22</ele>
        <time>2026-02-12T13:26:18.000Z</time>
      </trkpt>
      <trkpt lat="43.36296" lon="-1.60236">
        <ele>22</ele>
        <time>2026-02-12T13:26:20.000Z</time>
      </trkpt>
      <trkpt lat="43.36299" lon="-1.60225">
        <ele>21</ele>
        <time>2026-02-12T13:26:21.000Z</time>
      </trkpt>
      <trkpt lat="43.36316" lon="-1.60201">
        <ele>20</ele>
        <time>2026-02-12T13:26:26.000Z</time>
      </trkpt>
      <trkpt lat="43.36336" lon="-1.60166">
        <ele>16</ele>
        <time>2026-02-12T13:26:31.000Z</time>
      </trkpt>
      <trkpt lat="43.36371" lon="-1.60073">
        <ele>15</ele>
        <time>2026-02-12T13:26:45.000Z</time>
      </trkpt>
      <trkpt lat="43.36387" lon="-1.60042">
        <ele>15</ele>
        <time>2026-02-12T13:26:50.000Z</time>
      </trkpt>
      <trkpt lat="43.36404" lon="-1.60015">
        <ele>14</ele>
        <time>2026-02-12T13:26:55.000Z</time>
      </trkpt>
      <trkpt lat="43.36418" lon="-1.59996">
        <ele>13</ele>
        <time>2026-02-12T13:26:58.000Z</time>
      </trkpt>
      <trkpt lat="43.36447" lon="-1.59965">
        <ele>14</ele>
        <time>2026-02-12T13:27:05.000Z</time>
      </trkpt>
      <trkpt lat="43.36476" lon="-1.5994">
        <ele>14</ele>
        <time>2026-02-12T13:27:11.000Z</time>
      </trkpt>
      <trkpt lat="43.36533" lon="-1.59897">
        <ele>16</ele>
        <time>2026-02-12T13:27:22.000Z</time>
      </trkpt>
      <trkpt lat="43.36549" lon="-1.59873">
        <ele>17</ele>
        <time>2026-02-12T13:27:26.000Z</time>
      </trkpt>
      <trkpt lat="43.36562" lon="-1.59843">
        <ele>18</ele>
        <time>2026-02-12T13:27:31.000Z</time>
      </trkpt>
      <trkpt lat="43.36567" lon="-1.59809">
        <ele>18</ele>
        <time>2026-02-12T13:27:35.000Z</time>
      </trkpt>
      <trkpt lat="43.36588" lon="-1.59546">
        <ele>11</ele>
        <time>2026-02-12T13:28:10.000Z</time>
      </trkpt>
      <trkpt lat="43.36592" lon="-1.59482">
        <ele>9</ele>
        <time>2026-02-12T13:28:18.000Z</time>
      </trkpt>
      <trkpt lat="43.36589" lon="-1.5943">
        <ele>9</ele>
        <time>2026-02-12T13:28:25.000Z</time>
      </trkpt>
      <trkpt lat="43.36581" lon="-1.59376">
        <ele>9</ele>
        <time>2026-02-12T13:28:32.000Z</time>
      </trkpt>
      <trkpt lat="43.36482" lon="-1.59044">
        <ele>9</ele>
        <time>2026-02-12T13:29:18.000Z</time>
      </trkpt>
      <trkpt lat="43.3646" lon="-1.58976">
        <ele>11</ele>
        <time>2026-02-12T13:29:28.000Z</time>
      </trkpt>
      <trkpt lat="43.36444" lon="-1.58941">
        <ele>12</ele>
        <time>2026-02-12T13:29:33.000Z</time>
      </trkpt>
      <trkpt lat="43.36427" lon="-1.58913">
        <ele>13</ele>
        <time>2026-02-12T13:29:38.000Z</time>
      </trkpt>
      <trkpt lat="43.36402" lon="-1.58885">
        <ele>17</ele>
        <time>2026-02-12T13:29:44.000Z</time>
      </trkpt>
      <trkpt lat="43.36308" lon="-1.58801">
        <ele>19</ele>
        <time>2026-02-12T13:30:04.000Z</time>
      </trkpt>
      <trkpt lat="43.3628" lon="-1.58766">
        <ele>18</ele>
        <time>2026-02-12T13:30:10.000Z</time>
      </trkpt>
      <trkpt lat="43.36257" lon="-1.58723">
        <ele>14</ele>
        <time>2026-02-12T13:30:17.000Z</time>
      </trkpt>
      <trkpt lat="43.36164" lon="-1.58429">
        <ele>12</ele>
        <time>2026-02-12T13:30:59.000Z</time>
      </trkpt>
      <trkpt lat="43.36139" lon="-1.58363">
        <ele>12</ele>
        <time>2026-02-12T13:31:08.000Z</time>
      </trkpt>
      <trkpt lat="43.36129" lon="-1.58341">
        <ele>12</ele>
        <time>2026-02-12T13:31:12.000Z</time>
      </trkpt>
      <trkpt lat="43.36109" lon="-1.58303">
        <ele>12</ele>
        <time>2026-02-12T13:31:18.000Z</time>
      </trkpt>
      <trkpt lat="43.36003" lon="-1.58148">
        <ele>11</ele>
        <time>2026-02-12T13:31:45.000Z</time>
      </trkpt>
      <trkpt lat="43.35894" lon="-1.57993">
        <ele>11</ele>
        <time>2026-02-12T13:32:13.000Z</time>
      </trkpt>
      <trkpt lat="43.35882" lon="-1.57972">
        <ele>11</ele>
        <time>2026-02-12T13:32:17.000Z</time>
      </trkpt>
      <trkpt lat="43.35852" lon="-1.57913">
        <ele>12</ele>
        <time>2026-02-12T13:32:26.000Z</time>
      </trkpt>
      <trkpt lat="43.35838" lon="-1.57869">
        <ele>11</ele>
        <time>2026-02-12T13:32:32.000Z</time>
      </trkpt>
      <trkpt lat="43.35807" lon="-1.5772">
        <ele>12</ele>
        <time>2026-02-12T13:32:52.000Z</time>
      </trkpt>
      <trkpt lat="43.35782" lon="-1.57586">
        <ele>13</ele>
        <time>2026-02-12T13:33:10.000Z</time>
      </trkpt>
      <trkpt lat="43.35779" lon="-1.57552">
        <ele>13</ele>
        <time>2026-02-12T13:33:15.000Z</time>
      </trkpt>
      <trkpt lat="43.35779" lon="-1.57526">
        <ele>13</ele>
        <time>2026-02-12T13:33:18.000Z</time>
      </trkpt>
      <trkpt lat="43.35774" lon="-1.5748">
        <ele>13</ele>
        <time>2026-02-12T13:33:24.000Z</time>
      </trkpt>
      <trkpt lat="43.3577" lon="-1.57476">
        <ele>13</ele>
        <time>2026-02-12T13:33:25.000Z</time>
      </trkpt>
      <trkpt lat="43.35768" lon="-1.57469">
        <ele>13</ele>
        <time>2026-02-12T13:33:26.000Z</time>
      </trkpt>
      <trkpt lat="43.35771" lon="-1.57459">
        <ele>13</ele>
        <time>2026-02-12T13:33:27.000Z</time>
      </trkpt>
      <trkpt lat="43.35767" lon="-1.57433">
        <ele>13</ele>
        <time>2026-02-12T13:33:31.000Z</time>
      </trkpt>
      <trkpt lat="43.35763" lon="-1.57418">
        <ele>13</ele>
        <time>2026-02-12T13:33:33.000Z</time>
      </trkpt>
      <trkpt lat="43.35745" lon="-1.57225">
        <ele>14</ele>
        <time>2026-02-12T13:33:58.000Z</time>
      </trkpt>
      <trkpt lat="43.3574" lon="-1.57189">
        <ele>15</ele>
        <time>2026-02-12T13:34:03.000Z</time>
      </trkpt>
      <trkpt lat="43.35733" lon="-1.5716">
        <ele>15</ele>
        <time>2026-02-12T13:34:07.000Z</time>
      </trkpt>
      <trkpt lat="43.35723" lon="-1.57132">
        <ele>15</ele>
        <time>2026-02-12T13:34:11.000Z</time>
      </trkpt>
      <trkpt lat="43.35625" lon="-1.56922">
        <ele>17</ele>
        <time>2026-02-12T13:34:43.000Z</time>
      </trkpt>
      <trkpt lat="43.35597" lon="-1.56872">
        <ele>17</ele>
        <time>2026-02-12T13:34:51.000Z</time>
      </trkpt>
      <trkpt lat="43.35588" lon="-1.56851">
        <ele>17</ele>
        <time>2026-02-12T13:34:54.000Z</time>
      </trkpt>
      <trkpt lat="43.35586" lon="-1.56839">
        <ele>17</ele>
        <time>2026-02-12T13:34:56.000Z</time>
      </trkpt>
      <trkpt lat="43.35585" lon="-1.56813">
        <ele>17</ele>
        <time>2026-02-12T13:34:59.000Z</time>
      </trkpt>
      <trkpt lat="43.35589" lon="-1.56787">
        <ele>17</ele>
        <time>2026-02-12T13:35:03.000Z</time>
      </trkpt>
      <trkpt lat="43.35608" lon="-1.56729">
        <ele>18</ele>
        <time>2026-02-12T13:35:11.000Z</time>
      </trkpt>
      <trkpt lat="43.35617" lon="-1.56692">
        <ele>19</ele>
        <time>2026-02-12T13:35:16.000Z</time>
      </trkpt>
      <trkpt lat="43.35625" lon="-1.56642">
        <ele>19</ele>
        <time>2026-02-12T13:35:23.000Z</time>
      </trkpt>
      <trkpt lat="43.35624" lon="-1.56615">
        <ele>19</ele>
        <time>2026-02-12T13:35:26.000Z</time>
      </trkpt>
      <trkpt lat="43.35619" lon="-1.56612">
        <ele>19</ele>
        <time>2026-02-12T13:35:27.000Z</time>
      </trkpt>
      <trkpt lat="43.35615" lon="-1.56601">
        <ele>19</ele>
        <time>2026-02-12T13:35:29.000Z</time>
      </trkpt>
      <trkpt lat="43.35617" lon="-1.56593">
        <ele>19</ele>
        <time>2026-02-12T13:35:30.000Z</time>
      </trkpt>
      <trkpt lat="43.35621" lon="-1.56588">
        <ele>19</ele>
        <time>2026-02-12T13:35:31.000Z</time>
      </trkpt>
      <trkpt lat="43.35624" lon="-1.56587">
        <ele>19</ele>
        <time>2026-02-12T13:35:31.000Z</time>
      </trkpt>
      <trkpt lat="43.35622" lon="-1.56558">
        <ele>19</ele>
        <time>2026-02-12T13:35:35.000Z</time>
      </trkpt>
      <trkpt lat="43.35622" lon="-1.56509">
        <ele>19</ele>
        <time>2026-02-12T13:35:41.000Z</time>
      </trkpt>
      <trkpt lat="43.35616" lon="-1.56498">
        <ele>18</ele>
        <time>2026-02-12T13:35:43.000Z</time>
      </trkpt>
      <trkpt lat="43.3561" lon="-1.56265">
        <ele>18</ele>
        <time>2026-02-12T13:36:13.000Z</time>
      </trkpt>
      <trkpt lat="43.3561" lon="-1.56201">
        <ele>19</ele>
        <time>2026-02-12T13:36:22.000Z</time>
      </trkpt>
      <trkpt lat="43.35614" lon="-1.56149">
        <ele>19</ele>
        <time>2026-02-12T13:36:28.000Z</time>
      </trkpt>
      <trkpt lat="43.35618" lon="-1.56125">
        <ele>18</ele>
        <time>2026-02-12T13:36:31.000Z</time>
      </trkpt>
      <trkpt lat="43.35635" lon="-1.56094">
        <ele>18</ele>
        <time>2026-02-12T13:36:37.000Z</time>
      </trkpt>
      <trkpt lat="43.35642" lon="-1.56085">
        <ele>17</ele>
        <time>2026-02-12T13:36:38.000Z</time>
      </trkpt>
      <trkpt lat="43.35648" lon="-1.5608">
        <ele>17</ele>
        <time>2026-02-12T13:36:39.000Z</time>
      </trkpt>
      <trkpt lat="43.35652" lon="-1.56086">
        <ele>18</ele>
        <time>2026-02-12T13:36:41.000Z</time>
      </trkpt>
      <trkpt lat="43.35721" lon="-1.56041">
        <ele>19</ele>
        <time>2026-02-12T13:36:54.000Z</time>
      </trkpt>
      <trkpt lat="43.3573" lon="-1.56032">
        <ele>19</ele>
        <time>2026-02-12T13:36:56.000Z</time>
      </trkpt>
      <trkpt lat="43.35734" lon="-1.56023">
        <ele>19</ele>
        <time>2026-02-12T13:36:57.000Z</time>
      </trkpt>
      <trkpt lat="43.35739" lon="-1.56006">
        <ele>18</ele>
        <time>2026-02-12T13:37:00.000Z</time>
      </trkpt>
      <trkpt lat="43.35737" lon="-1.55994">
        <ele>17</ele>
        <time>2026-02-12T13:37:01.000Z</time>
      </trkpt>
      <trkpt lat="43.35718" lon="-1.5597">
        <ele>16</ele>
        <time>2026-02-12T13:37:06.000Z</time>
      </trkpt>
      <trkpt lat="43.35682" lon="-1.55941">
        <ele>16</ele>
        <time>2026-02-12T13:37:13.000Z</time>
      </trkpt>
      <trkpt lat="43.35646" lon="-1.55913">
        <ele>16</ele>
        <time>2026-02-12T13:37:21.000Z</time>
      </trkpt>
      <trkpt lat="43.35632" lon="-1.55899">
        <ele>15</ele>
        <time>2026-02-12T13:37:24.000Z</time>
      </trkpt>
      <trkpt lat="43.35606" lon="-1.55857">
        <ele>15</ele>
        <time>2026-02-12T13:37:31.000Z</time>
      </trkpt>
      <trkpt lat="43.35592" lon="-1.55814">
        <ele>15</ele>
        <time>2026-02-12T13:37:37.000Z</time>
      </trkpt>
      <trkpt lat="43.35588" lon="-1.55791">
        <ele>16</ele>
        <time>2026-02-12T13:37:40.000Z</time>
      </trkpt>
      <trkpt lat="43.35585" lon="-1.55731">
        <ele>16</ele>
        <time>2026-02-12T13:37:48.000Z</time>
      </trkpt>
      <trkpt lat="43.35581" lon="-1.55514">
        <ele>13</ele>
        <time>2026-02-12T13:38:16.000Z</time>
      </trkpt>
      <trkpt lat="43.35579" lon="-1.55487">
        <ele>14</ele>
        <time>2026-02-12T13:38:20.000Z</time>
      </trkpt>
      <trkpt lat="43.35574" lon="-1.55465">
        <ele>14</ele>
        <time>2026-02-12T13:38:23.000Z</time>
      </trkpt>
      <trkpt lat="43.35563" lon="-1.55444">
        <ele>15</ele>
        <time>2026-02-12T13:38:26.000Z</time>
      </trkpt>
      <trkpt lat="43.35552" lon="-1.55434">
        <ele>15</ele>
        <time>2026-02-12T13:38:28.000Z</time>
      </trkpt>
      <trkpt lat="43.35547" lon="-1.55433">
        <ele>15</ele>
        <time>2026-02-12T13:38:29.000Z</time>
      </trkpt>
      <trkpt lat="43.3554" lon="-1.55426">
        <ele>15</ele>
        <time>2026-02-12T13:38:31.000Z</time>
      </trkpt>
      <trkpt lat="43.35537" lon="-1.55419">
        <ele>15</ele>
        <time>2026-02-12T13:38:32.000Z</time>
      </trkpt>
      <trkpt lat="43.35537" lon="-1.55411">
        <ele>16</ele>
        <time>2026-02-12T13:38:33.000Z</time>
      </trkpt>
      <trkpt lat="43.35523" lon="-1.55388">
        <ele>16</ele>
        <time>2026-02-12T13:38:37.000Z</time>
      </trkpt>
      <trkpt lat="43.35509" lon="-1.55378">
        <ele>16</ele>
        <time>2026-02-12T13:38:39.000Z</time>
      </trkpt>
      <trkpt lat="43.35496" lon="-1.55373">
        <ele>16</ele>
        <time>2026-02-12T13:38:42.000Z</time>
      </trkpt>
      <trkpt lat="43.35483" lon="-1.5537">
        <ele>16</ele>
        <time>2026-02-12T13:38:44.000Z</time>
      </trkpt>
      <trkpt lat="43.35456" lon="-1.55371">
        <ele>16</ele>
        <time>2026-02-12T13:38:49.000Z</time>
      </trkpt>
      <trkpt lat="43.35398" lon="-1.5538">
        <ele>16</ele>
        <time>2026-02-12T13:38:59.000Z</time>
      </trkpt>
      <trkpt lat="43.35369" lon="-1.55382">
        <ele>16</ele>
        <time>2026-02-12T13:39:05.000Z</time>
      </trkpt>
      <trkpt lat="43.35338" lon="-1.55377">
        <ele>16</ele>
        <time>2026-02-12T13:39:10.000Z</time>
      </trkpt>
      <trkpt lat="43.35313" lon="-1.55363">
        <ele>17</ele>
        <time>2026-02-12T13:39:15.000Z</time>
      </trkpt>
      <trkpt lat="43.35293" lon="-1.55347">
        <ele>17</ele>
        <time>2026-02-12T13:39:19.000Z</time>
      </trkpt>
      <trkpt lat="43.35274" lon="-1.55324">
        <ele>18</ele>
        <time>2026-02-12T13:39:24.000Z</time>
      </trkpt>
      <trkpt lat="43.35261" lon="-1.55301">
        <ele>17</ele>
        <time>2026-02-12T13:39:27.000Z</time>
      </trkpt>
      <trkpt lat="43.35241" lon="-1.55255">
        <ele>17</ele>
        <time>2026-02-12T13:39:34.000Z</time>
      </trkpt>
      <trkpt lat="43.35211" lon="-1.55188">
        <ele>16</ele>
        <time>2026-02-12T13:39:44.000Z</time>
      </trkpt>
      <trkpt lat="43.35123" lon="-1.5499">
        <ele>18</ele>
        <time>2026-02-12T13:40:14.000Z</time>
      </trkpt>
      <trkpt lat="43.35117" lon="-1.54993">
        <ele>18</ele>
        <time>2026-02-12T13:40:16.000Z</time>
      </trkpt>
      <trkpt lat="43.3511" lon="-1.54994">
        <ele>18</ele>
        <time>2026-02-12T13:40:17.000Z</time>
      </trkpt>
      <trkpt lat="43.35104" lon="-1.54993">
        <ele>18</ele>
        <time>2026-02-12T13:40:18.000Z</time>
      </trkpt>
      <trkpt lat="43.35098" lon="-1.54988">
        <ele>18</ele>
        <time>2026-02-12T13:40:19.000Z</time>
      </trkpt>
      <trkpt lat="43.35091" lon="-1.54976">
        <ele>18</ele>
        <time>2026-02-12T13:40:21.000Z</time>
      </trkpt>
      <trkpt lat="43.3509" lon="-1.54959">
        <ele>19</ele>
        <time>2026-02-12T13:40:23.000Z</time>
      </trkpt>
      <trkpt lat="43.35092" lon="-1.54951">
        <ele>19</ele>
        <time>2026-02-12T13:40:24.000Z</time>
      </trkpt>
      <trkpt lat="43.35085" lon="-1.5492">
        <ele>20</ele>
        <time>2026-02-12T13:40:29.000Z</time>
      </trkpt>
      <trkpt lat="43.35076" lon="-1.54912">
        <ele>20</ele>
        <time>2026-02-12T13:40:31.000Z</time>
      </trkpt>
      <trkpt lat="43.34941" lon="-1.54841">
        <ele>23</ele>
        <time>2026-02-12T13:40:56.000Z</time>
      </trkpt>
      <trkpt lat="43.34909" lon="-1.54821">
        <ele>24</ele>
        <time>2026-02-12T13:41:03.000Z</time>
      </trkpt>
      <trkpt lat="43.34888" lon="-1.548">
        <ele>25</ele>
        <time>2026-02-12T13:41:07.000Z</time>
      </trkpt>
      <trkpt lat="43.34869" lon="-1.54775">
        <ele>25</ele>
        <time>2026-02-12T13:41:12.000Z</time>
      </trkpt>
      <trkpt lat="43.347" lon="-1.54509">
        <ele>28</ele>
        <time>2026-02-12T13:41:58.000Z</time>
      </trkpt>
      <trkpt lat="43.34688" lon="-1.54483">
        <ele>28</ele>
        <time>2026-02-12T13:42:01.000Z</time>
      </trkpt>
      <trkpt lat="43.3468" lon="-1.5445">
        <ele>29</ele>
        <time>2026-02-12T13:42:06.000Z</time>
      </trkpt>
      <trkpt lat="43.34678" lon="-1.54431">
        <ele>30</ele>
        <time>2026-02-12T13:42:08.000Z</time>
      </trkpt>
      <trkpt lat="43.34674" lon="-1.54364">
        <ele>32</ele>
        <time>2026-02-12T13:42:17.000Z</time>
      </trkpt>
      <trkpt lat="43.34673" lon="-1.54279">
        <ele>35</ele>
        <time>2026-02-12T13:42:28.000Z</time>
      </trkpt>
      <trkpt lat="43.34667" lon="-1.54235">
        <ele>36</ele>
        <time>2026-02-12T13:42:34.000Z</time>
      </trkpt>
      <trkpt lat="43.34661" lon="-1.5421">
        <ele>37</ele>
        <time>2026-02-12T13:42:37.000Z</time>
      </trkpt>
      <trkpt lat="43.3465" lon="-1.54178">
        <ele>38</ele>
        <time>2026-02-12T13:42:42.000Z</time>
      </trkpt>
      <trkpt lat="43.34639" lon="-1.54155">
        <ele>37</ele>
        <time>2026-02-12T13:42:46.000Z</time>
      </trkpt>
      <trkpt lat="43.3459" lon="-1.54058">
        <ele>34</ele>
        <time>2026-02-12T13:43:01.000Z</time>
      </trkpt>
      <trkpt lat="43.34579" lon="-1.54025">
        <ele>34</ele>
        <time>2026-02-12T13:43:05.000Z</time>
      </trkpt>
      <trkpt lat="43.34572" lon="-1.53997">
        <ele>34</ele>
        <time>2026-02-12T13:43:09.000Z</time>
      </trkpt>
      <trkpt lat="43.34568" lon="-1.53959">
        <ele>34</ele>
        <time>2026-02-12T13:43:14.000Z</time>
      </trkpt>
      <trkpt lat="43.34567" lon="-1.53905">
        <ele>35</ele>
        <time>2026-02-12T13:43:21.000Z</time>
      </trkpt>
      <trkpt lat="43.34564" lon="-1.53862">
        <ele>37</ele>
        <time>2026-02-12T13:43:27.000Z</time>
      </trkpt>
      <trkpt lat="43.34557" lon="-1.53827">
        <ele>38</ele>
        <time>2026-02-12T13:43:32.000Z</time>
      </trkpt>
      <trkpt lat="43.34531" lon="-1.53721">
        <ele>38</ele>
        <time>2026-02-12T13:43:46.000Z</time>
      </trkpt>
      <trkpt lat="43.34523" lon="-1.53674">
        <ele>39</ele>
        <time>2026-02-12T13:43:52.000Z</time>
      </trkpt>
      <trkpt lat="43.34488" lon="-1.53413">
        <ele>43</ele>
        <time>2026-02-12T13:44:27.000Z</time>
      </trkpt>
      <trkpt lat="43.34461" lon="-1.53096">
        <ele>41</ele>
        <time>2026-02-12T13:45:08.000Z</time>
      </trkpt>
      <trkpt lat="43.34451" lon="-1.53016">
        <ele>38</ele>
        <time>2026-02-12T13:45:18.000Z</time>
      </trkpt>
      <trkpt lat="43.34439" lon="-1.5296">
        <ele>36</ele>
        <time>2026-02-12T13:45:26.000Z</time>
      </trkpt>
      <trkpt lat="43.34431" lon="-1.52938">
        <ele>36</ele>
        <time>2026-02-12T13:45:29.000Z</time>
      </trkpt>
      <trkpt lat="43.34359" lon="-1.52813">
        <ele>35</ele>
        <time>2026-02-12T13:45:50.000Z</time>
      </trkpt>
      <trkpt lat="43.34344" lon="-1.52803">
        <ele>36</ele>
        <time>2026-02-12T13:45:53.000Z</time>
      </trkpt>
      <trkpt lat="43.34338" lon="-1.52805">
        <ele>36</ele>
        <time>2026-02-12T13:45:54.000Z</time>
      </trkpt>
      <trkpt lat="43.3433" lon="-1.52804">
        <ele>36</ele>
        <time>2026-02-12T13:45:55.000Z</time>
      </trkpt>
      <trkpt lat="43.34323" lon="-1.52797">
        <ele>36</ele>
        <time>2026-02-12T13:45:57.000Z</time>
      </trkpt>
      <trkpt lat="43.3432" lon="-1.52789">
        <ele>36</ele>
        <time>2026-02-12T13:45:58.000Z</time>
      </trkpt>
      <trkpt lat="43.3432" lon="-1.52774">
        <ele>36</ele>
        <time>2026-02-12T13:46:00.000Z</time>
      </trkpt>
      <trkpt lat="43.34322" lon="-1.52767">
        <ele>36</ele>
        <time>2026-02-12T13:46:01.000Z</time>
      </trkpt>
      <trkpt lat="43.34321" lon="-1.52745">
        <ele>36</ele>
        <time>2026-02-12T13:46:04.000Z</time>
      </trkpt>
      <trkpt lat="43.34316" lon="-1.52737">
        <ele>37</ele>
        <time>2026-02-12T13:46:05.000Z</time>
      </trkpt>
      <trkpt lat="43.3431" lon="-1.52726">
        <ele>38</ele>
        <time>2026-02-12T13:46:07.000Z</time>
      </trkpt>
      <trkpt lat="43.34244" lon="-1.52614">
        <ele>41</ele>
        <time>2026-02-12T13:46:26.000Z</time>
      </trkpt>
      <trkpt lat="43.34166" lon="-1.52489">
        <ele>41</ele>
        <time>2026-02-12T13:46:47.000Z</time>
      </trkpt>
      <trkpt lat="43.34149" lon="-1.52453">
        <ele>42</ele>
        <time>2026-02-12T13:46:52.000Z</time>
      </trkpt>
      <trkpt lat="43.33834" lon="-1.51711">
        <ele>44</ele>
        <time>2026-02-12T13:48:44.000Z</time>
      </trkpt>
      <trkpt lat="43.33772" lon="-1.51561">
        <ele>47</ele>
        <time>2026-02-12T13:49:06.000Z</time>
      </trkpt>
      <trkpt lat="43.33747" lon="-1.51498">
        <ele>47</ele>
        <time>2026-02-12T13:49:15.000Z</time>
      </trkpt>
      <trkpt lat="43.33643" lon="-1.51157">
        <ele>52</ele>
        <time>2026-02-12T13:50:03.000Z</time>
      </trkpt>
      <trkpt lat="43.33637" lon="-1.51133">
        <ele>52</ele>
        <time>2026-02-12T13:50:06.000Z</time>
      </trkpt>
      <trkpt lat="43.3363" lon="-1.51094">
        <ele>53</ele>
        <time>2026-02-12T13:50:12.000Z</time>
      </trkpt>
      <trkpt lat="43.33589" lon="-1.5077">
        <ele>60</ele>
        <time>2026-02-12T13:50:54.000Z</time>
      </trkpt>
      <trkpt lat="43.33586" lon="-1.50738">
        <ele>62</ele>
        <time>2026-02-12T13:50:58.000Z</time>
      </trkpt>
      <trkpt lat="43.33597" lon="-1.50735">
        <ele>63</ele>
        <time>2026-02-12T13:51:00.000Z</time>
      </trkpt>
      <trkpt lat="43.33601" lon="-1.50724">
        <ele>64</ele>
        <time>2026-02-12T13:51:02.000Z</time>
      </trkpt>
      <trkpt lat="43.33604" lon="-1.50681">
        <ele>68</ele>
        <time>2026-02-12T13:51:07.000Z</time>
      </trkpt>
      <trkpt lat="43.33609" lon="-1.50654">
        <ele>71</ele>
        <time>2026-02-12T13:51:11.000Z</time>
      </trkpt>
      <trkpt lat="43.33612" lon="-1.50644">
        <ele>71</ele>
        <time>2026-02-12T13:51:12.000Z</time>
      </trkpt>
      <trkpt lat="43.33619" lon="-1.5064">
        <ele>71</ele>
        <time>2026-02-12T13:51:14.000Z</time>
      </trkpt>
      <trkpt lat="43.33631" lon="-1.50638">
        <ele>71</ele>
        <time>2026-02-12T13:51:16.000Z</time>
      </trkpt>
      <trkpt lat="43.33656" lon="-1.50647">
        <ele>71</ele>
        <time>2026-02-12T13:51:21.000Z</time>
      </trkpt>
      <trkpt lat="43.33664" lon="-1.50655">
        <ele>71</ele>
        <time>2026-02-12T13:51:22.000Z</time>
      </trkpt>
      <trkpt lat="43.33708" lon="-1.50721">
        <ele>79</ele>
        <time>2026-02-12T13:51:34.000Z</time>
      </trkpt>
      <trkpt lat="43.33732" lon="-1.50752">
        <ele>84</ele>
        <time>2026-02-12T13:51:40.000Z</time>
      </trkpt>
      <trkpt lat="43.33736" lon="-1.50763">
        <ele>85</ele>
        <time>2026-02-12T13:51:41.000Z</time>
      </trkpt>
      <trkpt lat="43.33735" lon="-1.50773">
        <ele>84</ele>
        <time>2026-02-12T13:51:43.000Z</time>
      </trkpt>
      <trkpt lat="43.33731" lon="-1.50808">
        <ele>83</ele>
        <time>2026-02-12T13:51:47.000Z</time>
      </trkpt>
      <trkpt lat="43.33731" lon="-1.50834">
        <ele>83</ele>
        <time>2026-02-12T13:51:51.000Z</time>
      </trkpt>
      <trkpt lat="43.33734" lon="-1.50858">
        <ele>82</ele>
        <time>2026-02-12T13:51:54.000Z</time>
      </trkpt>
      <trkpt lat="43.33739" lon="-1.50877">
        <ele>82</ele>
        <time>2026-02-12T13:51:56.000Z</time>
      </trkpt>
      <trkpt lat="43.33751" lon="-1.50899">
        <ele>84</ele>
        <time>2026-02-12T13:52:00.000Z</time>
      </trkpt>
      <trkpt lat="43.33761" lon="-1.50911">
        <ele>85</ele>
        <time>2026-02-12T13:52:02.000Z</time>
      </trkpt>
      <trkpt lat="43.33773" lon="-1.50921">
        <ele>86</ele>
        <time>2026-02-12T13:52:05.000Z</time>
      </trkpt>
      <trkpt lat="43.33789" lon="-1.5093">
        <ele>88</ele>
        <time>2026-02-12T13:52:08.000Z</time>
      </trkpt>
      <trkpt lat="43.33798" lon="-1.50934">
        <ele>89</ele>
        <time>2026-02-12T13:52:10.000Z</time>
      </trkpt>
      <trkpt lat="43.33814" lon="-1.50934">
        <ele>92</ele>
        <time>2026-02-12T13:52:12.000Z</time>
      </trkpt>
      <trkpt lat="43.33823" lon="-1.5093">
        <ele>94</ele>
        <time>2026-02-12T13:52:14.000Z</time>
      </trkpt>
      <trkpt lat="43.33831" lon="-1.50913">
        <ele>97</ele>
        <time>2026-02-12T13:52:17.000Z</time>
      </trkpt>
      <trkpt lat="43.33831" lon="-1.50843">
        <ele>102</ele>
        <time>2026-02-12T13:52:26.000Z</time>
      </trkpt>
      <trkpt lat="43.33835" lon="-1.5082">
        <ele>103</ele>
        <time>2026-02-12T13:52:29.000Z</time>
      </trkpt>
      <trkpt lat="43.33879" lon="-1.50652">
        <ele>106</ele>
        <time>2026-02-12T13:52:52.000Z</time>
      </trkpt>
      <trkpt lat="43.33889" lon="-1.50634">
        <ele>107</ele>
        <time>2026-02-12T13:52:55.000Z</time>
      </trkpt>
      <trkpt lat="43.339" lon="-1.50626">
        <ele>108</ele>
        <time>2026-02-12T13:52:57.000Z</time>
      </trkpt>
      <trkpt lat="43.33926" lon="-1.50623">
        <ele>111</ele>
        <time>2026-02-12T13:53:02.000Z</time>
      </trkpt>
      <trkpt lat="43.33947" lon="-1.50618">
        <ele>112</ele>
        <time>2026-02-12T13:53:06.000Z</time>
      </trkpt>
      <trkpt lat="43.3397" lon="-1.50605">
        <ele>115</ele>
        <time>2026-02-12T13:53:10.000Z</time>
      </trkpt>
      <trkpt lat="43.33987" lon="-1.50594">
        <ele>117</ele>
        <time>2026-02-12T13:53:13.000Z</time>
      </trkpt>
      <trkpt lat="43.34005" lon="-1.50572">
        <ele>119</ele>
        <time>2026-02-12T13:53:18.000Z</time>
      </trkpt>
      <trkpt lat="43.34009" lon="-1.50568">
        <ele>118</ele>
        <time>2026-02-12T13:53:18.000Z</time>
      </trkpt>
      <trkpt lat="43.34016" lon="-1.50546">
        <ele>117</ele>
        <time>2026-02-12T13:53:22.000Z</time>
      </trkpt>
      <trkpt lat="43.34017" lon="-1.50525">
        <ele>117</ele>
        <time>2026-02-12T13:53:24.000Z</time>
      </trkpt>
      <trkpt lat="43.34005" lon="-1.50399">
        <ele>120</ele>
        <time>2026-02-12T13:53:41.000Z</time>
      </trkpt>
      <trkpt lat="43.34006" lon="-1.50367">
        <ele>121</ele>
        <time>2026-02-12T13:53:45.000Z</time>
      </trkpt>
      <trkpt lat="43.34023" lon="-1.50259">
        <ele>121</ele>
        <time>2026-02-12T13:53:59.000Z</time>
      </trkpt>
      <trkpt lat="43.34031" lon="-1.50218">
        <ele>122</ele>
        <time>2026-02-12T13:54:05.000Z</time>
      </trkpt>
      <trkpt lat="43.34055" lon="-1.50153">
        <ele>125</ele>
        <time>2026-02-12T13:54:14.000Z</time>
      </trkpt>
      <trkpt lat="43.34071" lon="-1.50123">
        <ele>128</ele>
        <time>2026-02-12T13:54:19.000Z</time>
      </trkpt>
      <trkpt lat="43.34104" lon="-1.50071">
        <ele>131</ele>
        <time>2026-02-12T13:54:28.000Z</time>
      </trkpt>
      <trkpt lat="43.34114" lon="-1.50049">
        <ele>133</ele>
        <time>2026-02-12T13:54:31.000Z</time>
      </trkpt>
      <trkpt lat="43.34124" lon="-1.50004">
        <ele>133</ele>
        <time>2026-02-12T13:54:37.000Z</time>
      </trkpt>
      <trkpt lat="43.3413" lon="-1.49987">
        <ele>134</ele>
        <time>2026-02-12T13:54:40.000Z</time>
      </trkpt>
      <trkpt lat="43.34144" lon="-1.49988">
        <ele>135</ele>
        <time>2026-02-12T13:54:42.000Z</time>
      </trkpt>
      <trkpt lat="43.34226" lon="-1.49981">
        <ele>132</ele>
        <time>2026-02-12T13:54:57.000Z</time>
      </trkpt>
      <trkpt lat="43.34246" lon="-1.49983">
        <ele>131</ele>
        <time>2026-02-12T13:55:00.000Z</time>
      </trkpt>
      <trkpt lat="43.34262" lon="-1.49988">
        <ele>131</ele>
        <time>2026-02-12T13:55:03.000Z</time>
      </trkpt>
      <trkpt lat="43.34281" lon="-1.5">
        <ele>132</ele>
        <time>2026-02-12T13:55:07.000Z</time>
      </trkpt>
      <trkpt lat="43.34322" lon="-1.50034">
        <ele>129</ele>
        <time>2026-02-12T13:55:16.000Z</time>
      </trkpt>
      <trkpt lat="43.34334" lon="-1.5004">
        <ele>128</ele>
        <time>2026-02-12T13:55:18.000Z</time>
      </trkpt>
      <trkpt lat="43.34346" lon="-1.50041">
        <ele>127</ele>
        <time>2026-02-12T13:55:20.000Z</time>
      </trkpt>
      <trkpt lat="43.34356" lon="-1.50039">
        <ele>127</ele>
        <time>2026-02-12T13:55:22.000Z</time>
      </trkpt>
      <trkpt lat="43.34369" lon="-1.50032">
        <ele>127</ele>
        <time>2026-02-12T13:55:24.000Z</time>
      </trkpt>
      <trkpt lat="43.34447" lon="-1.49918">
        <ele>124</ele>
        <time>2026-02-12T13:55:45.000Z</time>
      </trkpt>
      <trkpt lat="43.34453" lon="-1.49904">
        <ele>123</ele>
        <time>2026-02-12T13:55:47.000Z</time>
      </trkpt>
      <trkpt lat="43.34458" lon="-1.49883">
        <ele>123</ele>
        <time>2026-02-12T13:55:49.000Z</time>
      </trkpt>
      <trkpt lat="43.34479" lon="-1.49761">
        <ele>118</ele>
        <time>2026-02-12T13:56:06.000Z</time>
      </trkpt>
      <trkpt lat="43.3449" lon="-1.49685">
        <ele>116</ele>
        <time>2026-02-12T13:56:16.000Z</time>
      </trkpt>
      <trkpt lat="43.34497" lon="-1.49618">
        <ele>117</ele>
        <time>2026-02-12T13:56:25.000Z</time>
      </trkpt>
      <trkpt lat="43.34505" lon="-1.4957">
        <ele>118</ele>
        <time>2026-02-12T13:56:31.000Z</time>
      </trkpt>
      <trkpt lat="43.34515" lon="-1.49529">
        <ele>118</ele>
        <time>2026-02-12T13:56:36.000Z</time>
      </trkpt>
      <trkpt lat="43.34526" lon="-1.495">
        <ele>117</ele>
        <time>2026-02-12T13:56:41.000Z</time>
      </trkpt>
      <trkpt lat="43.34566" lon="-1.4942">
        <ele>111</ele>
        <time>2026-02-12T13:56:53.000Z</time>
      </trkpt>
      <trkpt lat="43.34597" lon="-1.49334">
        <ele>106</ele>
        <time>2026-02-12T13:57:06.000Z</time>
      </trkpt>
      <trkpt lat="43.34604" lon="-1.4931">
        <ele>103</ele>
        <time>2026-02-12T13:57:09.000Z</time>
      </trkpt>
      <trkpt lat="43.34696" lon="-1.49366">
        <ele>95</ele>
        <time>2026-02-12T13:57:27.000Z</time>
      </trkpt>
      <trkpt lat="43.34746" lon="-1.4939">
        <ele>94</ele>
        <time>2026-02-12T13:57:36.000Z</time>
      </trkpt>
      <trkpt lat="43.34767" lon="-1.49406">
        <ele>94</ele>
        <time>2026-02-12T13:57:41.000Z</time>
      </trkpt>
      <trkpt lat="43.34787" lon="-1.49426">
        <ele>95</ele>
        <time>2026-02-12T13:57:45.000Z</time>
      </trkpt>
      <trkpt lat="43.34825" lon="-1.4948">
        <ele>96</ele>
        <time>2026-02-12T13:57:55.000Z</time>
      </trkpt>
      <trkpt lat="43.34872" lon="-1.49547">
        <ele>98</ele>
        <time>2026-02-12T13:58:07.000Z</time>
      </trkpt>
      <trkpt lat="43.34888" lon="-1.49565">
        <ele>99</ele>
        <time>2026-02-12T13:58:10.000Z</time>
      </trkpt>
      <trkpt lat="43.34899" lon="-1.4957">
        <ele>99</ele>
        <time>2026-02-12T13:58:13.000Z</time>
      </trkpt>
      <trkpt lat="43.34955" lon="-1.49574">
        <ele>99</ele>
        <time>2026-02-12T13:58:23.000Z</time>
      </trkpt>
      <trkpt lat="43.34974" lon="-1.49569">
        <ele>99</ele>
        <time>2026-02-12T13:58:26.000Z</time>
      </trkpt>
      <trkpt lat="43.34985" lon="-1.4956">
        <ele>99</ele>
        <time>2026-02-12T13:58:28.000Z</time>
      </trkpt>
      <trkpt lat="43.34995" lon="-1.49546">
        <ele>99</ele>
        <time>2026-02-12T13:58:31.000Z</time>
      </trkpt>
      <trkpt lat="43.35011" lon="-1.49509">
        <ele>101</ele>
        <time>2026-02-12T13:58:36.000Z</time>
      </trkpt>
      <trkpt lat="43.35028" lon="-1.49488">
        <ele>103</ele>
        <time>2026-02-12T13:58:40.000Z</time>
      </trkpt>
      <trkpt lat="43.35046" lon="-1.4948">
        <ele>105</ele>
        <time>2026-02-12T13:58:44.000Z</time>
      </trkpt>
      <trkpt lat="43.35058" lon="-1.4948">
        <ele>106</ele>
        <time>2026-02-12T13:58:46.000Z</time>
      </trkpt>
      <trkpt lat="43.35071" lon="-1.4949">
        <ele>109</ele>
        <time>2026-02-12T13:58:49.000Z</time>
      </trkpt>
      <trkpt lat="43.35141" lon="-1.4956">
        <ele>117</ele>
        <time>2026-02-12T13:59:04.000Z</time>
      </trkpt>
      <trkpt lat="43.35159" lon="-1.49567">
        <ele>119</ele>
        <time>2026-02-12T13:59:07.000Z</time>
      </trkpt>
      <trkpt lat="43.35255" lon="-1.49597">
        <ele>124</ele>
        <time>2026-02-12T13:59:25.000Z</time>
      </trkpt>
      <trkpt lat="43.35293" lon="-1.49602">
        <ele>125</ele>
        <time>2026-02-12T13:59:32.000Z</time>
      </trkpt>
      <trkpt lat="43.35442" lon="-1.49602">
        <ele>128</ele>
        <time>2026-02-12T13:59:58.000Z</time>
      </trkpt>
      <trkpt lat="43.35488" lon="-1.49618">
        <ele>128</ele>
        <time>2026-02-12T14:00:07.000Z</time>
      </trkpt>
      <trkpt lat="43.35508" lon="-1.49612">
        <ele>128</ele>
        <time>2026-02-12T14:00:10.000Z</time>
      </trkpt>
      <trkpt lat="43.35525" lon="-1.49599">
        <ele>126</ele>
        <time>2026-02-12T14:00:14.000Z</time>
      </trkpt>
      <trkpt lat="43.35551" lon="-1.49538">
        <ele>122</ele>
        <time>2026-02-12T14:00:23.000Z</time>
      </trkpt>
      <trkpt lat="43.35569" lon="-1.49489">
        <ele>122</ele>
        <time>2026-02-12T14:00:30.000Z</time>
      </trkpt>
      <trkpt lat="43.3558" lon="-1.49452">
        <ele>124</ele>
        <time>2026-02-12T14:00:35.000Z</time>
      </trkpt>
      <trkpt lat="43.35586" lon="-1.49415">
        <ele>125</ele>
        <time>2026-02-12T14:00:40.000Z</time>
      </trkpt>
      <trkpt lat="43.35586" lon="-1.49377">
        <ele>126</ele>
        <time>2026-02-12T14:00:45.000Z</time>
      </trkpt>
      <trkpt lat="43.35583" lon="-1.4935">
        <ele>127</ele>
        <time>2026-02-12T14:00:48.000Z</time>
      </trkpt>
      <trkpt lat="43.35576" lon="-1.49328">
        <ele>126</ele>
        <time>2026-02-12T14:00:52.000Z</time>
      </trkpt>
      <trkpt lat="43.35545" lon="-1.49253">
        <ele>122</ele>
        <time>2026-02-12T14:01:03.000Z</time>
      </trkpt>
      <trkpt lat="43.35538" lon="-1.49228">
        <ele>122</ele>
        <time>2026-02-12T14:01:06.000Z</time>
      </trkpt>
      <trkpt lat="43.35536" lon="-1.49198">
        <ele>122</ele>
        <time>2026-02-12T14:01:10.000Z</time>
      </trkpt>
      <trkpt lat="43.35541" lon="-1.49175">
        <ele>122</ele>
        <time>2026-02-12T14:01:13.000Z</time>
      </trkpt>
      <trkpt lat="43.35557" lon="-1.49151">
        <ele>122</ele>
        <time>2026-02-12T14:01:17.000Z</time>
      </trkpt>
      <trkpt lat="43.35683" lon="-1.49055">
        <ele>131</ele>
        <time>2026-02-12T14:01:43.000Z</time>
      </trkpt>
      <trkpt lat="43.35725" lon="-1.49017">
        <ele>137</ele>
        <time>2026-02-12T14:01:52.000Z</time>
      </trkpt>
      <trkpt lat="43.35742" lon="-1.48993">
        <ele>139</ele>
        <time>2026-02-12T14:01:56.000Z</time>
      </trkpt>
      <trkpt lat="43.35775" lon="-1.4894">
        <ele>134</ele>
        <time>2026-02-12T14:02:05.000Z</time>
      </trkpt>
      <trkpt lat="43.35824" lon="-1.48879">
        <ele>131</ele>
        <time>2026-02-12T14:02:17.000Z</time>
      </trkpt>
      <trkpt lat="43.35871" lon="-1.48827">
        <ele>133</ele>
        <time>2026-02-12T14:02:28.000Z</time>
      </trkpt>
      <trkpt lat="43.359" lon="-1.48786">
        <ele>138</ele>
        <time>2026-02-12T14:02:35.000Z</time>
      </trkpt>
      <trkpt lat="43.35921" lon="-1.48749">
        <ele>144</ele>
        <time>2026-02-12T14:02:41.000Z</time>
      </trkpt>
      <trkpt lat="43.35929" lon="-1.48725">
        <ele>145</ele>
        <time>2026-02-12T14:02:45.000Z</time>
      </trkpt>
      <trkpt lat="43.35935" lon="-1.48687">
        <ele>148</ele>
        <time>2026-02-12T14:02:50.000Z</time>
      </trkpt>
      <trkpt lat="43.35937" lon="-1.48661">
        <ele>151</ele>
        <time>2026-02-12T14:02:53.000Z</time>
      </trkpt>
      <trkpt lat="43.35935" lon="-1.48631">
        <ele>155</ele>
        <time>2026-02-12T14:02:57.000Z</time>
      </trkpt>
      <trkpt lat="43.35924" lon="-1.48583">
        <ele>161</ele>
        <time>2026-02-12T14:03:04.000Z</time>
      </trkpt>
      <trkpt lat="43.35914" lon="-1.48545">
        <ele>161</ele>
        <time>2026-02-12T14:03:09.000Z</time>
      </trkpt>
      <trkpt lat="43.3591" lon="-1.48507">
        <ele>160</ele>
        <time>2026-02-12T14:03:14.000Z</time>
      </trkpt>
      <trkpt lat="43.35912" lon="-1.4846">
        <ele>158</ele>
        <time>2026-02-12T14:03:20.000Z</time>
      </trkpt>
      <trkpt lat="43.35921" lon="-1.48405">
        <ele>154</ele>
        <time>2026-02-12T14:03:27.000Z</time>
      </trkpt>
      <trkpt lat="43.35931" lon="-1.48376">
        <ele>152</ele>
        <time>2026-02-12T14:03:31.000Z</time>
      </trkpt>
      <trkpt lat="43.35942" lon="-1.48348">
        <ele>150</ele>
        <time>2026-02-12T14:03:35.000Z</time>
      </trkpt>
      <trkpt lat="43.35957" lon="-1.48319">
        <ele>149</ele>
        <time>2026-02-12T14:03:40.000Z</time>
      </trkpt>
      <trkpt lat="43.35993" lon="-1.48261">
        <ele>146</ele>
        <time>2026-02-12T14:03:50.000Z</time>
      </trkpt>
      <trkpt lat="43.36009" lon="-1.48245">
        <ele>145</ele>
        <time>2026-02-12T14:03:53.000Z</time>
      </trkpt>
      <trkpt lat="43.36022" lon="-1.48235">
        <ele>143</ele>
        <time>2026-02-12T14:03:56.000Z</time>
      </trkpt>
      <trkpt lat="43.36046" lon="-1.48208">
        <ele>139</ele>
        <time>2026-02-12T14:04:02.000Z</time>
      </trkpt>
      <trkpt lat="43.36054" lon="-1.48189">
        <ele>137</ele>
        <time>2026-02-12T14:04:04.000Z</time>
      </trkpt>
      <trkpt lat="43.36058" lon="-1.48161">
        <ele>135</ele>
        <time>2026-02-12T14:04:08.000Z</time>
      </trkpt>
      <trkpt lat="43.36055" lon="-1.4805">
        <ele>135</ele>
        <time>2026-02-12T14:04:22.000Z</time>
      </trkpt>
      <trkpt lat="43.36056" lon="-1.47967">
        <ele>138</ele>
        <time>2026-02-12T14:04:33.000Z</time>
      </trkpt>
      <trkpt lat="43.36054" lon="-1.47934">
        <ele>138</ele>
        <time>2026-02-12T14:04:37.000Z</time>
      </trkpt>
      <trkpt lat="43.36048" lon="-1.47908">
        <ele>138</ele>
        <time>2026-02-12T14:04:41.000Z</time>
      </trkpt>
      <trkpt lat="43.36024" lon="-1.47824">
        <ele>132</ele>
        <time>2026-02-12T14:04:53.000Z</time>
      </trkpt>
      <trkpt lat="43.36021" lon="-1.47798">
        <ele>131</ele>
        <time>2026-02-12T14:04:56.000Z</time>
      </trkpt>
      <trkpt lat="43.36023" lon="-1.47777">
        <ele>129</ele>
        <time>2026-02-12T14:04:59.000Z</time>
      </trkpt>
      <trkpt lat="43.36033" lon="-1.47748">
        <ele>126</ele>
        <time>2026-02-12T14:05:03.000Z</time>
      </trkpt>
      <trkpt lat="43.36102" lon="-1.47571">
        <ele>135</ele>
        <time>2026-02-12T14:05:29.000Z</time>
      </trkpt>
      <trkpt lat="43.36103" lon="-1.47556">
        <ele>136</ele>
        <time>2026-02-12T14:05:31.000Z</time>
      </trkpt>
      <trkpt lat="43.36101" lon="-1.47537">
        <ele>137</ele>
        <time>2026-02-12T14:05:33.000Z</time>
      </trkpt>
      <trkpt lat="43.36121" lon="-1.47528">
        <ele>136</ele>
        <time>2026-02-12T14:05:37.000Z</time>
      </trkpt>
      <trkpt lat="43.36136" lon="-1.47512">
        <ele>135</ele>
        <time>2026-02-12T14:05:40.000Z</time>
      </trkpt>
      <trkpt lat="43.36146" lon="-1.4749">
        <ele>135</ele>
        <time>2026-02-12T14:05:44.000Z</time>
      </trkpt>
      <trkpt lat="43.36162" lon="-1.47422">
        <ele>133</ele>
        <time>2026-02-12T14:05:53.000Z</time>
      </trkpt>
      <trkpt lat="43.36171" lon="-1.47396">
        <ele>131</ele>
        <time>2026-02-12T14:05:57.000Z</time>
      </trkpt>
      <trkpt lat="43.36189" lon="-1.47369">
        <ele>128</ele>
        <time>2026-02-12T14:06:02.000Z</time>
      </trkpt>
      <trkpt lat="43.36215" lon="-1.47333">
        <ele>127</ele>
        <time>2026-02-12T14:06:08.000Z</time>
      </trkpt>
      <trkpt lat="43.36229" lon="-1.47309">
        <ele>126</ele>
        <time>2026-02-12T14:06:12.000Z</time>
      </trkpt>
      <trkpt lat="43.36237" lon="-1.47273">
        <ele>127</ele>
        <time>2026-02-12T14:06:17.000Z</time>
      </trkpt>
      <trkpt lat="43.36239" lon="-1.47248">
        <ele>127</ele>
        <time>2026-02-12T14:06:20.000Z</time>
      </trkpt>
      <trkpt lat="43.36222" lon="-1.47142">
        <ele>123</ele>
        <time>2026-02-12T14:06:34.000Z</time>
      </trkpt>
      <trkpt lat="43.36223" lon="-1.47119">
        <ele>122</ele>
        <time>2026-02-12T14:06:37.000Z</time>
      </trkpt>
      <trkpt lat="43.36227" lon="-1.47084">
        <ele>122</ele>
        <time>2026-02-12T14:06:42.000Z</time>
      </trkpt>
      <trkpt lat="43.36233" lon="-1.47053">
        <ele>122</ele>
        <time>2026-02-12T14:06:46.000Z</time>
      </trkpt>
      <trkpt lat="43.36241" lon="-1.47025">
        <ele>122</ele>
        <time>2026-02-12T14:06:50.000Z</time>
      </trkpt>
      <trkpt lat="43.36275" lon="-1.46956">
        <ele>123</ele>
        <time>2026-02-12T14:07:01.000Z</time>
      </trkpt>
      <trkpt lat="43.36298" lon="-1.46893">
        <ele>127</ele>
        <time>2026-02-12T14:07:10.000Z</time>
      </trkpt>
      <trkpt lat="43.36314" lon="-1.46868">
        <ele>128</ele>
        <time>2026-02-12T14:07:14.000Z</time>
      </trkpt>
      <trkpt lat="43.36332" lon="-1.46856">
        <ele>129</ele>
        <time>2026-02-12T14:07:18.000Z</time>
      </trkpt>
      <trkpt lat="43.36347" lon="-1.46852">
        <ele>128</ele>
        <time>2026-02-12T14:07:20.000Z</time>
      </trkpt>
      <trkpt lat="43.36383" lon="-1.46848">
        <ele>127</ele>
        <time>2026-02-12T14:07:27.000Z</time>
      </trkpt>
      <trkpt lat="43.36409" lon="-1.4684">
        <ele>126</ele>
        <time>2026-02-12T14:07:32.000Z</time>
      </trkpt>
      <trkpt lat="43.36423" lon="-1.46831">
        <ele>125</ele>
        <time>2026-02-12T14:07:34.000Z</time>
      </trkpt>
      <trkpt lat="43.36431" lon="-1.46827">
        <ele>124</ele>
        <time>2026-02-12T14:07:36.000Z</time>
      </trkpt>
      <trkpt lat="43.36458" lon="-1.46801">
        <ele>119</ele>
        <time>2026-02-12T14:07:42.000Z</time>
      </trkpt>
      <trkpt lat="43.36483" lon="-1.46771">
        <ele>115</ele>
        <time>2026-02-12T14:07:48.000Z</time>
      </trkpt>
      <trkpt lat="43.36544" lon="-1.46681">
        <ele>106</ele>
        <time>2026-02-12T14:08:03.000Z</time>
      </trkpt>
      <trkpt lat="43.36563" lon="-1.46657">
        <ele>105</ele>
        <time>2026-02-12T14:08:08.000Z</time>
      </trkpt>
      <trkpt lat="43.36575" lon="-1.46647">
        <ele>105</ele>
        <time>2026-02-12T14:08:11.000Z</time>
      </trkpt>
      <trkpt lat="43.36655" lon="-1.46596">
        <ele>106</ele>
        <time>2026-02-12T14:08:26.000Z</time>
      </trkpt>
      <trkpt lat="43.36687" lon="-1.46568">
        <ele>109</ele>
        <time>2026-02-12T14:08:33.000Z</time>
      </trkpt>
      <trkpt lat="43.36735" lon="-1.46518">
        <ele>112</ele>
        <time>2026-02-12T14:08:44.000Z</time>
      </trkpt>
      <trkpt lat="43.3676" lon="-1.46486">
        <ele>112</ele>
        <time>2026-02-12T14:08:50.000Z</time>
      </trkpt>
      <trkpt lat="43.36773" lon="-1.46461">
        <ele>112</ele>
        <time>2026-02-12T14:08:54.000Z</time>
      </trkpt>
      <trkpt lat="43.36786" lon="-1.46442">
        <ele>112</ele>
        <time>2026-02-12T14:08:57.000Z</time>
      </trkpt>
      <trkpt lat="43.36801" lon="-1.4643">
        <ele>112</ele>
        <time>2026-02-12T14:09:00.000Z</time>
      </trkpt>
      <trkpt lat="43.36815" lon="-1.46425">
        <ele>112</ele>
        <time>2026-02-12T14:09:03.000Z</time>
      </trkpt>
      <trkpt lat="43.36859" lon="-1.46424">
        <ele>110</ele>
        <time>2026-02-12T14:09:11.000Z</time>
      </trkpt>
      <trkpt lat="43.36963" lon="-1.46399">
        <ele>104</ele>
        <time>2026-02-12T14:09:29.000Z</time>
      </trkpt>
      <trkpt lat="43.37014" lon="-1.46384">
        <ele>102</ele>
        <time>2026-02-12T14:09:39.000Z</time>
      </trkpt>
      <trkpt lat="43.3705" lon="-1.46371">
        <ele>100</ele>
        <time>2026-02-12T14:09:45.000Z</time>
      </trkpt>
      <trkpt lat="43.37193" lon="-1.46312">
        <ele>97</ele>
        <time>2026-02-12T14:10:12.000Z</time>
      </trkpt>
      <trkpt lat="43.37246" lon="-1.46294">
        <ele>98</ele>
        <time>2026-02-12T14:10:22.000Z</time>
      </trkpt>
      <trkpt lat="43.37293" lon="-1.46283">
        <ele>98</ele>
        <time>2026-02-12T14:10:30.000Z</time>
      </trkpt>
      <trkpt lat="43.37633" lon="-1.4622">
        <ele>88</ele>
        <time>2026-02-12T14:11:31.000Z</time>
      </trkpt>
      <trkpt lat="43.37653" lon="-1.46213">
        <ele>88</ele>
        <time>2026-02-12T14:11:35.000Z</time>
      </trkpt>
      <trkpt lat="43.37675" lon="-1.46201">
        <ele>88</ele>
        <time>2026-02-12T14:11:39.000Z</time>
      </trkpt>
      <trkpt lat="43.37693" lon="-1.46183">
        <ele>88</ele>
        <time>2026-02-12T14:11:43.000Z</time>
      </trkpt>
      <trkpt lat="43.37727" lon="-1.46137">
        <ele>90</ele>
        <time>2026-02-12T14:11:51.000Z</time>
      </trkpt>
      <trkpt lat="43.37814" lon="-1.46042">
        <ele>93</ele>
        <time>2026-02-12T14:12:11.000Z</time>
      </trkpt>
      <trkpt lat="43.37835" lon="-1.46014">
        <ele>94</ele>
        <time>2026-02-12T14:12:16.000Z</time>
      </trkpt>
      <trkpt lat="43.37854" lon="-1.45984">
        <ele>93</ele>
        <time>2026-02-12T14:12:22.000Z</time>
      </trkpt>
      <trkpt lat="43.37989" lon="-1.45716">
        <ele>92</ele>
        <time>2026-02-12T14:13:04.000Z</time>
      </trkpt>
      <trkpt lat="43.37995" lon="-1.45698">
        <ele>93</ele>
        <time>2026-02-12T14:13:06.000Z</time>
      </trkpt>
      <trkpt lat="43.38001" lon="-1.45675">
        <ele>93</ele>
        <time>2026-02-12T14:13:09.000Z</time>
      </trkpt>
      <trkpt lat="43.38018" lon="-1.45568">
        <ele>94</ele>
        <time>2026-02-12T14:13:24.000Z</time>
      </trkpt>
      <trkpt lat="43.38028" lon="-1.45525">
        <ele>94</ele>
        <time>2026-02-12T14:13:29.000Z</time>
      </trkpt>
      <trkpt lat="43.38036" lon="-1.45508">
        <ele>93</ele>
        <time>2026-02-12T14:13:32.000Z</time>
      </trkpt>
      <trkpt lat="43.38046" lon="-1.45496">
        <ele>93</ele>
        <time>2026-02-12T14:13:34.000Z</time>
      </trkpt>
      <trkpt lat="43.38063" lon="-1.45481">
        <ele>92</ele>
        <time>2026-02-12T14:13:38.000Z</time>
      </trkpt>
      <trkpt lat="43.38076" lon="-1.45474">
        <ele>90</ele>
        <time>2026-02-12T14:13:40.000Z</time>
      </trkpt>
      <trkpt lat="43.38089" lon="-1.45473">
        <ele>89</ele>
        <time>2026-02-12T14:13:43.000Z</time>
      </trkpt>
      <trkpt lat="43.38157" lon="-1.45502">
        <ele>85</ele>
        <time>2026-02-12T14:13:55.000Z</time>
      </trkpt>
      <trkpt lat="43.3825" lon="-1.4555">
        <ele>83</ele>
        <time>2026-02-12T14:14:13.000Z</time>
      </trkpt>
      <trkpt lat="43.38264" lon="-1.45555">
        <ele>83</ele>
        <time>2026-02-12T14:14:16.000Z</time>
      </trkpt>
      <trkpt lat="43.38294" lon="-1.45564">
        <ele>84</ele>
        <time>2026-02-12T14:14:21.000Z</time>
      </trkpt>
      <trkpt lat="43.38526" lon="-1.45614">
        <ele>80</ele>
        <time>2026-02-12T14:15:03.000Z</time>
      </trkpt>
      <trkpt lat="43.38592" lon="-1.45636">
        <ele>81</ele>
        <time>2026-02-12T14:15:15.000Z</time>
      </trkpt>
      <trkpt lat="43.38609" lon="-1.45644">
        <ele>83</ele>
        <time>2026-02-12T14:15:18.000Z</time>
      </trkpt>
      <trkpt lat="43.38622" lon="-1.45654">
        <ele>85</ele>
        <time>2026-02-12T14:15:21.000Z</time>
      </trkpt>
      <trkpt lat="43.38638" lon="-1.45675">
        <ele>88</ele>
        <time>2026-02-12T14:15:25.000Z</time>
      </trkpt>
      <trkpt lat="43.38649" lon="-1.45702">
        <ele>89</ele>
        <time>2026-02-12T14:15:29.000Z</time>
      </trkpt>
      <trkpt lat="43.38677" lon="-1.45784">
        <ele>92</ele>
        <time>2026-02-12T14:15:41.000Z</time>
      </trkpt>
      <trkpt lat="43.38691" lon="-1.45817">
        <ele>93</ele>
        <time>2026-02-12T14:15:45.000Z</time>
      </trkpt>
      <trkpt lat="43.38724" lon="-1.4588">
        <ele>96</ele>
        <time>2026-02-12T14:15:56.000Z</time>
      </trkpt>
      <trkpt lat="43.38745" lon="-1.45961">
        <ele>96</ele>
        <time>2026-02-12T14:16:07.000Z</time>
      </trkpt>
      <trkpt lat="43.38753" lon="-1.45978">
        <ele>95</ele>
        <time>2026-02-12T14:16:09.000Z</time>
      </trkpt>
      <trkpt lat="43.388" lon="-1.46061">
        <ele>91</ele>
        <time>2026-02-12T14:16:23.000Z</time>
      </trkpt>
      <trkpt lat="43.38811" lon="-1.46076">
        <ele>90</ele>
        <time>2026-02-12T14:16:26.000Z</time>
      </trkpt>
      <trkpt lat="43.38819" lon="-1.46083">
        <ele>89</ele>
        <time>2026-02-12T14:16:27.000Z</time>
      </trkpt>
      <trkpt lat="43.38841" lon="-1.46095">
        <ele>86</ele>
        <time>2026-02-12T14:16:32.000Z</time>
      </trkpt>
      <trkpt lat="43.38911" lon="-1.46109">
        <ele>77</ele>
        <time>2026-02-12T14:16:44.000Z</time>
      </trkpt>
      <trkpt lat="43.38928" lon="-1.46105">
        <ele>75</ele>
        <time>2026-02-12T14:16:47.000Z</time>
      </trkpt>
      <trkpt lat="43.38948" lon="-1.46092">
        <ele>73</ele>
        <time>2026-02-12T14:16:51.000Z</time>
      </trkpt>
      <trkpt lat="43.38969" lon="-1.4607">
        <ele>72</ele>
        <time>2026-02-12T14:16:56.000Z</time>
      </trkpt>
      <trkpt lat="43.39011" lon="-1.46">
        <ele>68</ele>
        <time>2026-02-12T14:17:08.000Z</time>
      </trkpt>
      <trkpt lat="43.39028" lon="-1.45981">
        <ele>66</ele>
        <time>2026-02-12T14:17:11.000Z</time>
      </trkpt>
      <trkpt lat="43.39076" lon="-1.45936">
        <ele>63</ele>
        <time>2026-02-12T14:17:22.000Z</time>
      </trkpt>
      <trkpt lat="43.39114" lon="-1.45905">
        <ele>62</ele>
        <time>2026-02-12T14:17:30.000Z</time>
      </trkpt>
      <trkpt lat="43.3912" lon="-1.45903">
        <ele>62</ele>
        <time>2026-02-12T14:17:31.000Z</time>
      </trkpt>
      <trkpt lat="43.39136" lon="-1.45896">
        <ele>61</ele>
        <time>2026-02-12T14:17:34.000Z</time>
      </trkpt>
      <trkpt lat="43.39147" lon="-1.45896">
        <ele>61</ele>
        <time>2026-02-12T14:17:36.000Z</time>
      </trkpt>
      <trkpt lat="43.39177" lon="-1.45901">
        <ele>59</ele>
        <time>2026-02-12T14:17:41.000Z</time>
      </trkpt>
      <trkpt lat="43.39213" lon="-1.45922">
        <ele>57</ele>
        <time>2026-02-12T14:17:48.000Z</time>
      </trkpt>
      <trkpt lat="43.39246" lon="-1.45946">
        <ele>54</ele>
        <time>2026-02-12T14:17:55.000Z</time>
      </trkpt>
      <trkpt lat="43.39149" lon="-1.45954">
        <ele>56</ele>
        <time>2026-02-12T14:18:12.000Z</time>
      </trkpt>
      <trkpt lat="43.39134" lon="-1.45958">
        <ele>56</ele>
        <time>2026-02-12T14:18:15.000Z</time>
      </trkpt>
      <trkpt lat="43.39119" lon="-1.45965">
        <ele>57</ele>
        <time>2026-02-12T14:18:17.000Z</time>
      </trkpt>
      <trkpt lat="43.39088" lon="-1.45996">
        <ele>58</ele>
        <time>2026-02-12T14:18:24.000Z</time>
      </trkpt>
      <trkpt lat="43.39051" lon="-1.46055">
        <ele>55</ele>
        <time>2026-02-12T14:18:34.000Z</time>
      </trkpt>
      <trkpt lat="43.39025" lon="-1.46092">
        <ele>57</ele>
        <time>2026-02-12T14:18:41.000Z</time>
      </trkpt>
      <trkpt lat="43.38993" lon="-1.46164">
        <ele>52</ele>
        <time>2026-02-12T14:18:52.000Z</time>
      </trkpt>
      <trkpt lat="43.38963" lon="-1.46201">
        <ele>51</ele>
        <time>2026-02-12T14:18:59.000Z</time>
      </trkpt>
      <trkpt lat="43.38929" lon="-1.46219">
        <ele>53</ele>
        <time>2026-02-12T14:19:06.000Z</time>
      </trkpt>
      <trkpt lat="43.38906" lon="-1.46253">
        <ele>48</ele>
        <time>2026-02-12T14:19:12.000Z</time>
      </trkpt>
      <trkpt lat="43.38867" lon="-1.46283">
        <ele>48</ele>
        <time>2026-02-12T14:19:20.000Z</time>
      </trkpt>
      <trkpt lat="43.38761" lon="-1.46327">
        <ele>46</ele>
        <time>2026-02-12T14:19:39.000Z</time>
      </trkpt>
      <trkpt lat="43.38738" lon="-1.46328">
        <ele>44</ele>
        <time>2026-02-12T14:19:43.000Z</time>
      </trkpt>
      <trkpt lat="43.38684" lon="-1.46285">
        <ele>44</ele>
        <time>2026-02-12T14:19:54.000Z</time>
      </trkpt>
      <trkpt lat="43.38653" lon="-1.46266">
        <ele>45</ele>
        <time>2026-02-12T14:20:00.000Z</time>
      </trkpt>
      <trkpt lat="43.38628" lon="-1.46268">
        <ele>44</ele>
        <time>2026-02-12T14:20:05.000Z</time>
      </trkpt>
      <trkpt lat="43.38591" lon="-1.463">
        <ele>39</ele>
        <time>2026-02-12T14:20:13.000Z</time>
      </trkpt>
      <trkpt lat="43.38558" lon="-1.46346">
        <ele>35</ele>
        <time>2026-02-12T14:20:21.000Z</time>
      </trkpt>
      <trkpt lat="43.38545" lon="-1.4636">
        <ele>35</ele>
        <time>2026-02-12T14:20:24.000Z</time>
      </trkpt>
      <trkpt lat="43.3853" lon="-1.46369">
        <ele>34</ele>
        <time>2026-02-12T14:20:27.000Z</time>
      </trkpt>
      <trkpt lat="43.38513" lon="-1.46373">
        <ele>34</ele>
        <time>2026-02-12T14:20:30.000Z</time>
      </trkpt>
      <trkpt lat="43.38476" lon="-1.4637">
        <ele>35</ele>
        <time>2026-02-12T14:20:37.000Z</time>
      </trkpt>
      <trkpt lat="43.38461" lon="-1.46373">
        <ele>36</ele>
        <time>2026-02-12T14:20:39.000Z</time>
      </trkpt>
      <trkpt lat="43.38446" lon="-1.46384">
        <ele>37</ele>
        <time>2026-02-12T14:20:42.000Z</time>
      </trkpt>
      <trkpt lat="43.3841" lon="-1.46418">
        <ele>38</ele>
        <time>2026-02-12T14:20:50.000Z</time>
      </trkpt>
      <trkpt lat="43.3841" lon="-1.4643">
        <ele>38</ele>
        <time>2026-02-12T14:20:52.000Z</time>
      </trkpt>
      <trkpt lat="43.38408" lon="-1.46435">
        <ele>38</ele>
        <time>2026-02-12T14:20:52.000Z</time>
      </trkpt>
      <trkpt lat="43.38401" lon="-1.46438">
        <ele>39</ele>
        <time>2026-02-12T14:20:54.000Z</time>
      </trkpt>
      <trkpt lat="43.38394" lon="-1.46433">
        <ele>39</ele>
        <time>2026-02-12T14:20:55.000Z</time>
      </trkpt>
      <trkpt lat="43.38368" lon="-1.46483">
        <ele>41</ele>
        <time>2026-02-12T14:21:03.000Z</time>
      </trkpt>
      <trkpt lat="43.38359" lon="-1.46518">
        <ele>42</ele>
        <time>2026-02-12T14:21:08.000Z</time>
      </trkpt>
      <trkpt lat="43.38352" lon="-1.46552">
        <ele>43</ele>
        <time>2026-02-12T14:21:12.000Z</time>
      </trkpt>
      <trkpt lat="43.3835" lon="-1.46599">
        <ele>45</ele>
        <time>2026-02-12T14:21:18.000Z</time>
      </trkpt>
      <trkpt lat="43.38352" lon="-1.4663">
        <ele>45</ele>
        <time>2026-02-12T14:21:23.000Z</time>
      </trkpt>
      <trkpt lat="43.38358" lon="-1.46657">
        <ele>45</ele>
        <time>2026-02-12T14:21:26.000Z</time>
      </trkpt>
      <trkpt lat="43.3847" lon="-1.46856">
        <ele>54</ele>
        <time>2026-02-12T14:21:59.000Z</time>
      </trkpt>
      <trkpt lat="43.38527" lon="-1.4698">
        <ele>65</ele>
        <time>2026-02-12T14:22:18.000Z</time>
      </trkpt>
      <trkpt lat="43.38552" lon="-1.47046">
        <ele>70</ele>
        <time>2026-02-12T14:22:27.000Z</time>
      </trkpt>
      <trkpt lat="43.38578" lon="-1.47147">
        <ele>75</ele>
        <time>2026-02-12T14:22:41.000Z</time>
      </trkpt>
      <trkpt lat="43.38578" lon="-1.47162">
        <ele>75</ele>
        <time>2026-02-12T14:22:43.000Z</time>
      </trkpt>
      <trkpt lat="43.38574" lon="-1.47178">
        <ele>76</ele>
        <time>2026-02-12T14:22:45.000Z</time>
      </trkpt>
      <trkpt lat="43.38539" lon="-1.47212">
        <ele>76</ele>
        <time>2026-02-12T14:22:53.000Z</time>
      </trkpt>
      <trkpt lat="43.38534" lon="-1.47222">
        <ele>76</ele>
        <time>2026-02-12T14:22:54.000Z</time>
      </trkpt>
      <trkpt lat="43.38531" lon="-1.47234">
        <ele>77</ele>
        <time>2026-02-12T14:22:56.000Z</time>
      </trkpt>
      <trkpt lat="43.3853" lon="-1.47247">
        <ele>79</ele>
        <time>2026-02-12T14:22:58.000Z</time>
      </trkpt>
      <trkpt lat="43.38532" lon="-1.47259">
        <ele>79</ele>
        <time>2026-02-12T14:22:59.000Z</time>
      </trkpt>
      <trkpt lat="43.38581" lon="-1.4744">
        <ele>87</ele>
        <time>2026-02-12T14:23:24.000Z</time>
      </trkpt>
      <trkpt lat="43.38583" lon="-1.47472">
        <ele>86</ele>
        <time>2026-02-12T14:23:29.000Z</time>
      </trkpt>
      <trkpt lat="43.38574" lon="-1.47586">
        <ele>89</ele>
        <time>2026-02-12T14:23:43.000Z</time>
      </trkpt>
      <trkpt lat="43.38573" lon="-1.47605">
        <ele>90</ele>
        <time>2026-02-12T14:23:46.000Z</time>
      </trkpt>
      <trkpt lat="43.38576" lon="-1.4763">
        <ele>90</ele>
        <time>2026-02-12T14:23:49.000Z</time>
      </trkpt>
      <trkpt lat="43.3859" lon="-1.47707">
        <ele>92</ele>
        <time>2026-02-12T14:23:59.000Z</time>
      </trkpt>
      <trkpt lat="43.38599" lon="-1.47742">
        <ele>94</ele>
        <time>2026-02-12T14:24:04.000Z</time>
      </trkpt>
      <trkpt lat="43.3861" lon="-1.4777">
        <ele>95</ele>
        <time>2026-02-12T14:24:08.000Z</time>
      </trkpt>
      <trkpt lat="43.38651" lon="-1.4784">
        <ele>99</ele>
        <time>2026-02-12T14:24:20.000Z</time>
      </trkpt>
      <trkpt lat="43.3869" lon="-1.47921">
        <ele>104</ele>
        <time>2026-02-12T14:24:32.000Z</time>
      </trkpt>
      <trkpt lat="43.38712" lon="-1.47953">
        <ele>106</ele>
        <time>2026-02-12T14:24:38.000Z</time>
      </trkpt>
      <trkpt lat="43.38723" lon="-1.47963">
        <ele>107</ele>
        <time>2026-02-12T14:24:41.000Z</time>
      </trkpt>
      <trkpt lat="43.38784" lon="-1.48006">
        <ele>109</ele>
        <time>2026-02-12T14:24:53.000Z</time>
      </trkpt>
      <trkpt lat="43.38791" lon="-1.48017">
        <ele>110</ele>
        <time>2026-02-12T14:24:55.000Z</time>
      </trkpt>
      <trkpt lat="43.38795" lon="-1.48032">
        <ele>110</ele>
        <time>2026-02-12T14:24:57.000Z</time>
      </trkpt>
      <trkpt lat="43.38797" lon="-1.48047">
        <ele>111</ele>
        <time>2026-02-12T14:24:59.000Z</time>
      </trkpt>
      <trkpt lat="43.38806" lon="-1.48158">
        <ele>113</ele>
        <time>2026-02-12T14:25:13.000Z</time>
      </trkpt>
      <trkpt lat="43.38806" lon="-1.48177">
        <ele>112</ele>
        <time>2026-02-12T14:25:16.000Z</time>
      </trkpt>
      <trkpt lat="43.38785" lon="-1.48321">
        <ele>111</ele>
        <time>2026-02-12T14:25:35.000Z</time>
      </trkpt>
      <trkpt lat="43.38777" lon="-1.48351">
        <ele>111</ele>
        <time>2026-02-12T14:25:39.000Z</time>
      </trkpt>
      <trkpt lat="43.38767" lon="-1.48371">
        <ele>112</ele>
        <time>2026-02-12T14:25:42.000Z</time>
      </trkpt>
      <trkpt lat="43.38729" lon="-1.48433">
        <ele>114</ele>
        <time>2026-02-12T14:25:52.000Z</time>
      </trkpt>
      <trkpt lat="43.3871" lon="-1.48454">
        <ele>114</ele>
        <time>2026-02-12T14:25:57.000Z</time>
      </trkpt>
      <trkpt lat="43.38686" lon="-1.48472">
        <ele>116</ele>
        <time>2026-02-12T14:26:01.000Z</time>
      </trkpt>
      <trkpt lat="43.3866" lon="-1.48496">
        <ele>117</ele>
        <time>2026-02-12T14:26:07.000Z</time>
      </trkpt>
      <trkpt lat="43.38647" lon="-1.48516">
        <ele>116</ele>
        <time>2026-02-12T14:26:11.000Z</time>
      </trkpt>
      <trkpt lat="43.38636" lon="-1.48544">
        <ele>115</ele>
        <time>2026-02-12T14:26:15.000Z</time>
      </trkpt>
      <trkpt lat="43.38633" lon="-1.48568">
        <ele>114</ele>
        <time>2026-02-12T14:26:18.000Z</time>
      </trkpt>
      <trkpt lat="43.38642" lon="-1.48713">
        <ele>107</ele>
        <time>2026-02-12T14:26:37.000Z</time>
      </trkpt>
      <trkpt lat="43.38651" lon="-1.48743">
        <ele>108</ele>
        <time>2026-02-12T14:26:41.000Z</time>
      </trkpt>
      <trkpt lat="43.38696" lon="-1.4882">
        <ele>107</ele>
        <time>2026-02-12T14:26:54.000Z</time>
      </trkpt>
      <trkpt lat="43.38702" lon="-1.4886">
        <ele>107</ele>
        <time>2026-02-12T14:26:59.000Z</time>
      </trkpt>
      <trkpt lat="43.38734" lon="-1.49133">
        <ele>119</ele>
        <time>2026-02-12T14:27:35.000Z</time>
      </trkpt>
      <trkpt lat="43.38737" lon="-1.49263">
        <ele>126</ele>
        <time>2026-02-12T14:27:51.000Z</time>
      </trkpt>
      <trkpt lat="43.38706" lon="-1.49424">
        <ele>126</ele>
        <time>2026-02-12T14:28:13.000Z</time>
      </trkpt>
      <trkpt lat="43.38678" lon="-1.49501">
        <ele>133</ele>
        <time>2026-02-12T14:28:24.000Z</time>
      </trkpt>
      <trkpt lat="43.38685" lon="-1.49592">
        <ele>133</ele>
        <time>2026-02-12T14:28:36.000Z</time>
      </trkpt>
      <trkpt lat="43.3868" lon="-1.49636">
        <ele>134</ele>
        <time>2026-02-12T14:28:42.000Z</time>
      </trkpt>
      <trkpt lat="43.3866" lon="-1.49697">
        <ele>138</ele>
        <time>2026-02-12T14:28:50.000Z</time>
      </trkpt>
      <trkpt lat="43.38573" lon="-1.49898">
        <ele>141</ele>
        <time>2026-02-12T14:29:21.000Z</time>
      </trkpt>
      <trkpt lat="43.38555" lon="-1.49922">
        <ele>140</ele>
        <time>2026-02-12T14:29:25.000Z</time>
      </trkpt>
      <trkpt lat="43.38475" lon="-1.49994">
        <ele>136</ele>
        <time>2026-02-12T14:29:42.000Z</time>
      </trkpt>
      <trkpt lat="43.38468" lon="-1.50015">
        <ele>135</ele>
        <time>2026-02-12T14:29:45.000Z</time>
      </trkpt>
      <trkpt lat="43.38452" lon="-1.50137">
        <ele>131</ele>
        <time>2026-02-12T14:30:01.000Z</time>
      </trkpt>
      <trkpt lat="43.3844" lon="-1.50174">
        <ele>129</ele>
        <time>2026-02-12T14:30:06.000Z</time>
      </trkpt>
      <trkpt lat="43.38412" lon="-1.50226">
        <ele>128</ele>
        <time>2026-02-12T14:30:15.000Z</time>
      </trkpt>
      <trkpt lat="43.38359" lon="-1.50285">
        <ele>126</ele>
        <time>2026-02-12T14:30:27.000Z</time>
      </trkpt>
      <trkpt lat="43.38265" lon="-1.50446">
        <ele>127</ele>
        <time>2026-02-12T14:30:54.000Z</time>
      </trkpt>
      <trkpt lat="43.3826" lon="-1.50458">
        <ele>127</ele>
        <time>2026-02-12T14:30:55.000Z</time>
      </trkpt>
      <trkpt lat="43.3815" lon="-1.50433">
        <ele>127</ele>
        <time>2026-02-12T14:31:15.000Z</time>
      </trkpt>
      <trkpt lat="43.38125" lon="-1.5043">
        <ele>127</ele>
        <time>2026-02-12T14:31:20.000Z</time>
      </trkpt>
      <trkpt lat="43.38017" lon="-1.50433">
        <ele>128</ele>
        <time>2026-02-12T14:31:39.000Z</time>
      </trkpt>
      <trkpt lat="43.37996" lon="-1.50438">
        <ele>128</ele>
        <time>2026-02-12T14:31:43.000Z</time>
      </trkpt>
      <trkpt lat="43.37963" lon="-1.50452">
        <ele>129</ele>
        <time>2026-02-12T14:31:49.000Z</time>
      </trkpt>
      <trkpt lat="43.37947" lon="-1.50456">
        <ele>129</ele>
        <time>2026-02-12T14:31:52.000Z</time>
      </trkpt>
      <trkpt lat="43.37933" lon="-1.50453">
        <ele>129</ele>
        <time>2026-02-12T14:31:54.000Z</time>
      </trkpt>
      <trkpt lat="43.37906" lon="-1.50439">
        <ele>129</ele>
        <time>2026-02-12T14:31:59.000Z</time>
      </trkpt>
      <trkpt lat="43.3789" lon="-1.50437">
        <ele>128</ele>
        <time>2026-02-12T14:32:02.000Z</time>
      </trkpt>
      <trkpt lat="43.37878" lon="-1.50441">
        <ele>128</ele>
        <time>2026-02-12T14:32:04.000Z</time>
      </trkpt>
      <trkpt lat="43.37871" lon="-1.5045">
        <ele>127</ele>
        <time>2026-02-12T14:32:06.000Z</time>
      </trkpt>
      <trkpt lat="43.37867" lon="-1.50466">
        <ele>127</ele>
        <time>2026-02-12T14:32:08.000Z</time>
      </trkpt>
      <trkpt lat="43.37875" lon="-1.50531">
        <ele>128</ele>
        <time>2026-02-12T14:32:17.000Z</time>
      </trkpt>
      <trkpt lat="43.37871" lon="-1.50596">
        <ele>128</ele>
        <time>2026-02-12T14:32:25.000Z</time>
      </trkpt>
      <trkpt lat="43.37859" lon="-1.50665">
        <ele>129</ele>
        <time>2026-02-12T14:32:34.000Z</time>
      </trkpt>
      <trkpt lat="43.37847" lon="-1.50819">
        <ele>132</ele>
        <time>2026-02-12T14:32:54.000Z</time>
      </trkpt>
      <trkpt lat="43.37838" lon="-1.50848">
        <ele>132</ele>
        <time>2026-02-12T14:32:59.000Z</time>
      </trkpt>
      <trkpt lat="43.37768" lon="-1.50997">
        <ele>135</ele>
        <time>2026-02-12T14:33:21.000Z</time>
      </trkpt>
      <trkpt lat="43.37737" lon="-1.51026">
        <ele>136</ele>
        <time>2026-02-12T14:33:28.000Z</time>
      </trkpt>
      <trkpt lat="43.37723" lon="-1.51051">
        <ele>137</ele>
        <time>2026-02-12T14:33:32.000Z</time>
      </trkpt>
      <trkpt lat="43.37704" lon="-1.51106">
        <ele>137</ele>
        <time>2026-02-12T14:33:40.000Z</time>
      </trkpt>
      <trkpt lat="43.37693" lon="-1.51128">
        <ele>136</ele>
        <time>2026-02-12T14:33:44.000Z</time>
      </trkpt>
      <trkpt lat="43.3768" lon="-1.51144">
        <ele>136</ele>
        <time>2026-02-12T14:33:47.000Z</time>
      </trkpt>
      <trkpt lat="43.37666" lon="-1.51152">
        <ele>136</ele>
        <time>2026-02-12T14:33:49.000Z</time>
      </trkpt>
      <trkpt lat="43.37641" lon="-1.51154">
        <ele>135</ele>
        <time>2026-02-12T14:33:54.000Z</time>
      </trkpt>
      <trkpt lat="43.37596" lon="-1.51133">
        <ele>136</ele>
        <time>2026-02-12T14:34:02.000Z</time>
      </trkpt>
      <trkpt lat="43.37576" lon="-1.51129">
        <ele>136</ele>
        <time>2026-02-12T14:34:06.000Z</time>
      </trkpt>
      <trkpt lat="43.37543" lon="-1.5113">
        <ele>136</ele>
        <time>2026-02-12T14:34:12.000Z</time>
      </trkpt>
      <trkpt lat="43.37523" lon="-1.51135">
        <ele>136</ele>
        <time>2026-02-12T14:34:15.000Z</time>
      </trkpt>
      <trkpt lat="43.37508" lon="-1.51147">
        <ele>136</ele>
        <time>2026-02-12T14:34:18.000Z</time>
      </trkpt>
      <trkpt lat="43.37498" lon="-1.51158">
        <ele>135</ele>
        <time>2026-02-12T14:34:21.000Z</time>
      </trkpt>
      <trkpt lat="43.37487" lon="-1.51176">
        <ele>134</ele>
        <time>2026-02-12T14:34:24.000Z</time>
      </trkpt>
      <trkpt lat="43.37462" lon="-1.51223">
        <ele>132</ele>
        <time>2026-02-12T14:34:31.000Z</time>
      </trkpt>
      <trkpt lat="43.37454" lon="-1.51254">
        <ele>132</ele>
        <time>2026-02-12T14:34:36.000Z</time>
      </trkpt>
      <trkpt lat="43.37452" lon="-1.51292">
        <ele>132</ele>
        <time>2026-02-12T14:34:40.000Z</time>
      </trkpt>
      <trkpt lat="43.37452" lon="-1.51326">
        <ele>131</ele>
        <time>2026-02-12T14:34:45.000Z</time>
      </trkpt>
      <trkpt lat="43.37448" lon="-1.51363">
        <ele>132</ele>
        <time>2026-02-12T14:34:50.000Z</time>
      </trkpt>
      <trkpt lat="43.37438" lon="-1.51436">
        <ele>133</ele>
        <time>2026-02-12T14:34:59.000Z</time>
      </trkpt>
      <trkpt lat="43.37427" lon="-1.51539">
        <ele>134</ele>
        <time>2026-02-12T14:35:13.000Z</time>
      </trkpt>
      <trkpt lat="43.37423" lon="-1.51565">
        <ele>134</ele>
        <time>2026-02-12T14:35:16.000Z</time>
      </trkpt>
      <trkpt lat="43.37411" lon="-1.51588">
        <ele>135</ele>
        <time>2026-02-12T14:35:20.000Z</time>
      </trkpt>
      <trkpt lat="43.374" lon="-1.51603">
        <ele>134</ele>
        <time>2026-02-12T14:35:23.000Z</time>
      </trkpt>
      <trkpt lat="43.37384" lon="-1.51611">
        <ele>134</ele>
        <time>2026-02-12T14:35:26.000Z</time>
      </trkpt>
      <trkpt lat="43.373" lon="-1.51641">
        <ele>137</ele>
        <time>2026-02-12T14:35:41.000Z</time>
      </trkpt>
      <trkpt lat="43.37279" lon="-1.51656">
        <ele>137</ele>
        <time>2026-02-12T14:35:45.000Z</time>
      </trkpt>
      <trkpt lat="43.37263" lon="-1.51685">
        <ele>138</ele>
        <time>2026-02-12T14:35:50.000Z</time>
      </trkpt>
      <trkpt lat="43.37249" lon="-1.51722">
        <ele>139</ele>
        <time>2026-02-12T14:35:55.000Z</time>
      </trkpt>
      <trkpt lat="43.37229" lon="-1.518">
        <ele>139</ele>
        <time>2026-02-12T14:36:06.000Z</time>
      </trkpt>
      <trkpt lat="43.37228" lon="-1.51845">
        <ele>139</ele>
        <time>2026-02-12T14:36:12.000Z</time>
      </trkpt>
      <trkpt lat="43.37239" lon="-1.51887">
        <ele>140</ele>
        <time>2026-02-12T14:36:18.000Z</time>
      </trkpt>
      <trkpt lat="43.37258" lon="-1.51934">
        <ele>139</ele>
        <time>2026-02-12T14:36:25.000Z</time>
      </trkpt>
      <trkpt lat="43.37275" lon="-1.52001">
        <ele>138</ele>
        <time>2026-02-12T14:36:34.000Z</time>
      </trkpt>
      <trkpt lat="43.37287" lon="-1.52055">
        <ele>138</ele>
        <time>2026-02-12T14:36:41.000Z</time>
      </trkpt>
      <trkpt lat="43.37289" lon="-1.52082">
        <ele>138</ele>
        <time>2026-02-12T14:36:45.000Z</time>
      </trkpt>
      <trkpt lat="43.37283" lon="-1.52118">
        <ele>138</ele>
        <time>2026-02-12T14:36:49.000Z</time>
      </trkpt>
      <trkpt lat="43.37271" lon="-1.52149">
        <ele>139</ele>
        <time>2026-02-12T14:36:54.000Z</time>
      </trkpt>
      <trkpt lat="43.37257" lon="-1.52177">
        <ele>139</ele>
        <time>2026-02-12T14:36:58.000Z</time>
      </trkpt>
      <trkpt lat="43.37235" lon="-1.52208">
        <ele>137</ele>
        <time>2026-02-12T14:37:04.000Z</time>
      </trkpt>
      <trkpt lat="43.37178" lon="-1.52275">
        <ele>134</ele>
        <time>2026-02-12T14:37:17.000Z</time>
      </trkpt>
      <trkpt lat="43.37147" lon="-1.52301">
        <ele>136</ele>
        <time>2026-02-12T14:37:24.000Z</time>
      </trkpt>
      <trkpt lat="43.37124" lon="-1.52316">
        <ele>138</ele>
        <time>2026-02-12T14:37:28.000Z</time>
      </trkpt>
      <trkpt lat="43.37089" lon="-1.52331">
        <ele>142</ele>
        <time>2026-02-12T14:37:35.000Z</time>
      </trkpt>
      <trkpt lat="43.37078" lon="-1.52342">
        <ele>143</ele>
        <time>2026-02-12T14:37:37.000Z</time>
      </trkpt>
      <trkpt lat="43.37071" lon="-1.52361">
        <ele>143</ele>
        <time>2026-02-12T14:37:40.000Z</time>
      </trkpt>
      <trkpt lat="43.37068" lon="-1.52455">
        <ele>141</ele>
        <time>2026-02-12T14:37:52.000Z</time>
      </trkpt>
      <trkpt lat="43.37064" lon="-1.52497">
        <ele>141</ele>
        <time>2026-02-12T14:37:58.000Z</time>
      </trkpt>
      <trkpt lat="43.37057" lon="-1.52524">
        <ele>141</ele>
        <time>2026-02-12T14:38:01.000Z</time>
      </trkpt>
      <trkpt lat="43.37046" lon="-1.52546">
        <ele>141</ele>
        <time>2026-02-12T14:38:05.000Z</time>
      </trkpt>
      <trkpt lat="43.3703" lon="-1.52563">
        <ele>141</ele>
        <time>2026-02-12T14:38:08.000Z</time>
      </trkpt>
      <trkpt lat="43.37005" lon="-1.52582">
        <ele>141</ele>
        <time>2026-02-12T14:38:13.000Z</time>
      </trkpt>
      <trkpt lat="43.36952" lon="-1.52605">
        <ele>142</ele>
        <time>2026-02-12T14:38:23.000Z</time>
      </trkpt>
      <trkpt lat="43.36908" lon="-1.52652">
        <ele>141</ele>
        <time>2026-02-12T14:38:33.000Z</time>
      </trkpt>
      <trkpt lat="43.36882" lon="-1.52658">
        <ele>139</ele>
        <time>2026-02-12T14:38:38.000Z</time>
      </trkpt>
      <trkpt lat="43.36867" lon="-1.52655">
        <ele>139</ele>
        <time>2026-02-12T14:38:41.000Z</time>
      </trkpt>
      <trkpt lat="43.36853" lon="-1.52645">
        <ele>139</ele>
        <time>2026-02-12T14:38:43.000Z</time>
      </trkpt>
      <trkpt lat="43.36841" lon="-1.52631">
        <ele>139</ele>
        <time>2026-02-12T14:38:46.000Z</time>
      </trkpt>
      <trkpt lat="43.36833" lon="-1.52616">
        <ele>139</ele>
        <time>2026-02-12T14:38:49.000Z</time>
      </trkpt>
      <trkpt lat="43.36833" lon="-1.52584">
        <ele>140</ele>
        <time>2026-02-12T14:38:53.000Z</time>
      </trkpt>
      <trkpt lat="43.36841" lon="-1.52544">
        <ele>141</ele>
        <time>2026-02-12T14:38:58.000Z</time>
      </trkpt>
      <trkpt lat="43.36831" lon="-1.52476">
        <ele>140</ele>
        <time>2026-02-12T14:39:07.000Z</time>
      </trkpt>
      <trkpt lat="43.36817" lon="-1.52434">
        <ele>140</ele>
        <time>2026-02-12T14:39:13.000Z</time>
      </trkpt>
      <trkpt lat="43.36799" lon="-1.52394">
        <ele>140</ele>
        <time>2026-02-12T14:39:19.000Z</time>
      </trkpt>
      <trkpt lat="43.36787" lon="-1.5235">
        <ele>142</ele>
        <time>2026-02-12T14:39:25.000Z</time>
      </trkpt>
      <trkpt lat="43.36779" lon="-1.52335">
        <ele>142</ele>
        <time>2026-02-12T14:39:28.000Z</time>
      </trkpt>
      <trkpt lat="43.36773" lon="-1.52329">
        <ele>142</ele>
        <time>2026-02-12T14:39:29.000Z</time>
      </trkpt>
      <trkpt lat="43.36764" lon="-1.52325">
        <ele>141</ele>
        <time>2026-02-12T14:39:31.000Z</time>
      </trkpt>
      <trkpt lat="43.36755" lon="-1.52327">
        <ele>140</ele>
        <time>2026-02-12T14:39:32.000Z</time>
      </trkpt>
      <trkpt lat="43.36717" lon="-1.52356">
        <ele>137</ele>
        <time>2026-02-12T14:39:40.000Z</time>
      </trkpt>
      <trkpt lat="43.36702" lon="-1.52364">
        <ele>137</ele>
        <time>2026-02-12T14:39:43.000Z</time>
      </trkpt>
      <trkpt lat="43.36668" lon="-1.52369">
        <ele>138</ele>
        <time>2026-02-12T14:39:49.000Z</time>
      </trkpt>
      <trkpt lat="43.36655" lon="-1.52375">
        <ele>137</ele>
        <time>2026-02-12T14:39:51.000Z</time>
      </trkpt>
      <trkpt lat="43.36641" lon="-1.52391">
        <ele>135</ele>
        <time>2026-02-12T14:39:55.000Z</time>
      </trkpt>
      <trkpt lat="43.3663" lon="-1.52398">
        <ele>134</ele>
        <time>2026-02-12T14:39:57.000Z</time>
      </trkpt>
      <trkpt lat="43.3662" lon="-1.52401">
        <ele>133</ele>
        <time>2026-02-12T14:39:59.000Z</time>
      </trkpt>
      <trkpt lat="43.36609" lon="-1.52398">
        <ele>132</ele>
        <time>2026-02-12T14:40:01.000Z</time>
      </trkpt>
      <trkpt lat="43.36599" lon="-1.52391">
        <ele>132</ele>
        <time>2026-02-12T14:40:03.000Z</time>
      </trkpt>
      <trkpt lat="43.36591" lon="-1.52379">
        <ele>132</ele>
        <time>2026-02-12T14:40:05.000Z</time>
      </trkpt>
      <trkpt lat="43.36555" lon="-1.52297">
        <ele>134</ele>
        <time>2026-02-12T14:40:17.000Z</time>
      </trkpt>
      <trkpt lat="43.36545" lon="-1.52284">
        <ele>134</ele>
        <time>2026-02-12T14:40:20.000Z</time>
      </trkpt>
      <trkpt lat="43.36534" lon="-1.52277">
        <ele>133</ele>
        <time>2026-02-12T14:40:22.000Z</time>
      </trkpt>
      <trkpt lat="43.36523" lon="-1.52274">
        <ele>133</ele>
        <time>2026-02-12T14:40:24.000Z</time>
      </trkpt>
      <trkpt lat="43.36506" lon="-1.52278">
        <ele>131</ele>
        <time>2026-02-12T14:40:27.000Z</time>
      </trkpt>
      <trkpt lat="43.36473" lon="-1.5229">
        <ele>130</ele>
        <time>2026-02-12T14:40:33.000Z</time>
      </trkpt>
      <trkpt lat="43.36446" lon="-1.52304">
        <ele>130</ele>
        <time>2026-02-12T14:40:38.000Z</time>
      </trkpt>
      <trkpt lat="43.36417" lon="-1.52323">
        <ele>131</ele>
        <time>2026-02-12T14:40:44.000Z</time>
      </trkpt>
      <trkpt lat="43.3638" lon="-1.52351">
        <ele>132</ele>
        <time>2026-02-12T14:40:51.000Z</time>
      </trkpt>
      <trkpt lat="43.36356" lon="-1.52376">
        <ele>132</ele>
        <time>2026-02-12T14:40:57.000Z</time>
      </trkpt>
      <trkpt lat="43.36342" lon="-1.52397">
        <ele>132</ele>
        <time>2026-02-12T14:41:00.000Z</time>
      </trkpt>
      <trkpt lat="43.36335" lon="-1.52415">
        <ele>132</ele>
        <time>2026-02-12T14:41:03.000Z</time>
      </trkpt>
      <trkpt lat="43.36298" lon="-1.52625">
        <ele>125</ele>
        <time>2026-02-12T14:41:31.000Z</time>
      </trkpt>
      <trkpt lat="43.36299" lon="-1.52656">
        <ele>123</ele>
        <time>2026-02-12T14:41:35.000Z</time>
      </trkpt>
      <trkpt lat="43.36305" lon="-1.5269">
        <ele>120</ele>
        <time>2026-02-12T14:41:39.000Z</time>
      </trkpt>
      <trkpt lat="43.36322" lon="-1.52743">
        <ele>118</ele>
        <time>2026-02-12T14:41:47.000Z</time>
      </trkpt>
      <trkpt lat="43.36341" lon="-1.52783">
        <ele>117</ele>
        <time>2026-02-12T14:41:53.000Z</time>
      </trkpt>
      <trkpt lat="43.3639" lon="-1.52871">
        <ele>114</ele>
        <time>2026-02-12T14:42:07.000Z</time>
      </trkpt>
      <trkpt lat="43.36402" lon="-1.52897">
        <ele>114</ele>
        <time>2026-02-12T14:42:11.000Z</time>
      </trkpt>
      <trkpt lat="43.3641" lon="-1.52925">
        <ele>115</ele>
        <time>2026-02-12T14:42:15.000Z</time>
      </trkpt>
      <trkpt lat="43.36424" lon="-1.53">
        <ele>110</ele>
        <time>2026-02-12T14:42:25.000Z</time>
      </trkpt>
      <trkpt lat="43.36463" lon="-1.53252">
        <ele>108</ele>
        <time>2026-02-12T14:42:59.000Z</time>
      </trkpt>
      <trkpt lat="43.36496" lon="-1.53439">
        <ele>104</ele>
        <time>2026-02-12T14:43:24.000Z</time>
      </trkpt>
      <trkpt lat="43.36507" lon="-1.53566">
        <ele>97</ele>
        <time>2026-02-12T14:43:40.000Z</time>
      </trkpt>
      <trkpt lat="43.36504" lon="-1.53627">
        <ele>97</ele>
        <time>2026-02-12T14:43:48.000Z</time>
      </trkpt>
      <trkpt lat="43.36486" lon="-1.53691">
        <ele>98</ele>
        <time>2026-02-12T14:43:57.000Z</time>
      </trkpt>
      <trkpt lat="43.36458" lon="-1.5377">
        <ele>99</ele>
        <time>2026-02-12T14:44:08.000Z</time>
      </trkpt>
      <trkpt lat="43.36453" lon="-1.53796">
        <ele>99</ele>
        <time>2026-02-12T14:44:12.000Z</time>
      </trkpt>
      <trkpt lat="43.36451" lon="-1.53875">
        <ele>99</ele>
        <time>2026-02-12T14:44:22.000Z</time>
      </trkpt>
      <trkpt lat="43.3644" lon="-1.53976">
        <ele>96</ele>
        <time>2026-02-12T14:44:35.000Z</time>
      </trkpt>
      <trkpt lat="43.36438" lon="-1.54039">
        <ele>95</ele>
        <time>2026-02-12T14:44:43.000Z</time>
      </trkpt>
      <trkpt lat="43.36416" lon="-1.54232">
        <ele>99</ele>
        <time>2026-02-12T14:45:09.000Z</time>
      </trkpt>
      <trkpt lat="43.36416" lon="-1.54258">
        <ele>100</ele>
        <time>2026-02-12T14:45:12.000Z</time>
      </trkpt>
      <trkpt lat="43.36422" lon="-1.54277">
        <ele>101</ele>
        <time>2026-02-12T14:45:15.000Z</time>
      </trkpt>
      <trkpt lat="43.36434" lon="-1.54296">
        <ele>100</ele>
        <time>2026-02-12T14:45:18.000Z</time>
      </trkpt>
      <trkpt lat="43.3645" lon="-1.54307">
        <ele>99</ele>
        <time>2026-02-12T14:45:21.000Z</time>
      </trkpt>
      <trkpt lat="43.36468" lon="-1.54315">
        <ele>97</ele>
        <time>2026-02-12T14:45:24.000Z</time>
      </trkpt>
      <trkpt lat="43.36492" lon="-1.54318">
        <ele>95</ele>
        <time>2026-02-12T14:45:29.000Z</time>
      </trkpt>
      <trkpt lat="43.36522" lon="-1.54318">
        <ele>91</ele>
        <time>2026-02-12T14:45:34.000Z</time>
      </trkpt>
      <trkpt lat="43.36539" lon="-1.54346">
        <ele>90</ele>
        <time>2026-02-12T14:45:39.000Z</time>
      </trkpt>
      <trkpt lat="43.36529" lon="-1.54476">
        <ele>90</ele>
        <time>2026-02-12T14:45:56.000Z</time>
      </trkpt>
      <trkpt lat="43.36549" lon="-1.54474">
        <ele>89</ele>
        <time>2026-02-12T14:45:59.000Z</time>
      </trkpt>
      <trkpt lat="43.36551" lon="-1.54482">
        <ele>89</ele>
        <time>2026-02-12T14:46:00.000Z</time>
      </trkpt>
      <trkpt lat="43.36571" lon="-1.54513">
        <ele>89</ele>
        <time>2026-02-12T14:46:06.000Z</time>
      </trkpt>
      <trkpt lat="43.36583" lon="-1.54578">
        <ele>95</ele>
        <time>2026-02-12T14:46:14.000Z</time>
      </trkpt>
      <trkpt lat="43.36591" lon="-1.54599">
        <ele>98</ele>
        <time>2026-02-12T14:46:17.000Z</time>
      </trkpt>
      <trkpt lat="43.36619" lon="-1.54616">
        <ele>98</ele>
        <time>2026-02-12T14:46:23.000Z</time>
      </trkpt>
      <trkpt lat="43.36637" lon="-1.54647">
        <ele>102</ele>
        <time>2026-02-12T14:46:28.000Z</time>
      </trkpt>
      <trkpt lat="43.36646" lon="-1.5469">
        <ele>105</ele>
        <time>2026-02-12T14:46:34.000Z</time>
      </trkpt>
      <trkpt lat="43.36641" lon="-1.54725">
        <ele>106</ele>
        <time>2026-02-12T14:46:38.000Z</time>
      </trkpt>
      <trkpt lat="43.36621" lon="-1.54776">
        <ele>105</ele>
        <time>2026-02-12T14:46:46.000Z</time>
      </trkpt>
      <trkpt lat="43.36619" lon="-1.54834">
        <ele>103</ele>
        <time>2026-02-12T14:46:53.000Z</time>
      </trkpt>
      <trkpt lat="43.36608" lon="-1.54987">
        <ele>102</ele>
        <time>2026-02-12T14:47:13.000Z</time>
      </trkpt>
      <trkpt lat="43.36624" lon="-1.55057">
        <ele>102</ele>
        <time>2026-02-12T14:47:23.000Z</time>
      </trkpt>
      <trkpt lat="43.36657" lon="-1.55105">
        <ele>105</ele>
        <time>2026-02-12T14:47:31.000Z</time>
      </trkpt>
      <trkpt lat="43.3672" lon="-1.55171">
        <ele>111</ele>
        <time>2026-02-12T14:47:45.000Z</time>
      </trkpt>
      <trkpt lat="43.36747" lon="-1.55241">
        <ele>112</ele>
        <time>2026-02-12T14:47:56.000Z</time>
      </trkpt>
      <trkpt lat="43.36833" lon="-1.55378">
        <ele>105</ele>
        <time>2026-02-12T14:48:19.000Z</time>
      </trkpt>
      <trkpt lat="43.36848" lon="-1.55386">
        <ele>105</ele>
        <time>2026-02-12T14:48:22.000Z</time>
      </trkpt>
      <trkpt lat="43.36886" lon="-1.55399">
        <ele>104</ele>
        <time>2026-02-12T14:48:29.000Z</time>
      </trkpt>
      <trkpt lat="43.36897" lon="-1.5541">
        <ele>105</ele>
        <time>2026-02-12T14:48:31.000Z</time>
      </trkpt>
      <trkpt lat="43.36915" lon="-1.55417">
        <ele>105</ele>
        <time>2026-02-12T14:48:35.000Z</time>
      </trkpt>
      <trkpt lat="43.36953" lon="-1.55421">
        <ele>100</ele>
        <time>2026-02-12T14:48:41.000Z</time>
      </trkpt>
      <trkpt lat="43.36969" lon="-1.55434">
        <ele>99</ele>
        <time>2026-02-12T14:48:45.000Z</time>
      </trkpt>
      <trkpt lat="43.36975" lon="-1.55454">
        <ele>100</ele>
        <time>2026-02-12T14:48:48.000Z</time>
      </trkpt>
      <trkpt lat="43.36974" lon="-1.55511">
        <ele>103</ele>
        <time>2026-02-12T14:48:55.000Z</time>
      </trkpt>
      <trkpt lat="43.36987" lon="-1.55526">
        <ele>102</ele>
        <time>2026-02-12T14:48:58.000Z</time>
      </trkpt>
      <trkpt lat="43.37003" lon="-1.55534">
        <ele>100</ele>
        <time>2026-02-12T14:49:01.000Z</time>
      </trkpt>
      <trkpt lat="43.37068" lon="-1.55527">
        <ele>97</ele>
        <time>2026-02-12T14:49:13.000Z</time>
      </trkpt>
      <trkpt lat="43.37174" lon="-1.55473">
        <ele>96</ele>
        <time>2026-02-12T14:49:33.000Z</time>
      </trkpt>
      <trkpt lat="43.37211" lon="-1.55481">
        <ele>98</ele>
        <time>2026-02-12T14:49:39.000Z</time>
      </trkpt>
      <trkpt lat="43.37305" lon="-1.55483">
        <ele>99</ele>
        <time>2026-02-12T14:49:56.000Z</time>
      </trkpt>
      <trkpt lat="43.37332" lon="-1.55489">
        <ele>99</ele>
        <time>2026-02-12T14:50:01.000Z</time>
      </trkpt>
      <trkpt lat="43.37399" lon="-1.5553">
        <ele>93</ele>
        <time>2026-02-12T14:50:14.000Z</time>
      </trkpt>
      <trkpt lat="43.37412" lon="-1.55546">
        <ele>93</ele>
        <time>2026-02-12T14:50:17.000Z</time>
      </trkpt>
      <trkpt lat="43.37435" lon="-1.55589">
        <ele>91</ele>
        <time>2026-02-12T14:50:24.000Z</time>
      </trkpt>
      <trkpt lat="43.37439" lon="-1.55621">
        <ele>91</ele>
        <time>2026-02-12T14:50:28.000Z</time>
      </trkpt>
      <trkpt lat="43.37438" lon="-1.55669">
        <ele>91</ele>
        <time>2026-02-12T14:50:34.000Z</time>
      </trkpt>
      <trkpt lat="43.37446" lon="-1.55735">
        <ele>92</ele>
        <time>2026-02-12T14:50:43.000Z</time>
      </trkpt>
      <trkpt lat="43.37456" lon="-1.55752">
        <ele>93</ele>
        <time>2026-02-12T14:50:46.000Z</time>
      </trkpt>
      <trkpt lat="43.37499" lon="-1.55783">
        <ele>93</ele>
        <time>2026-02-12T14:50:55.000Z</time>
      </trkpt>
      <trkpt lat="43.37516" lon="-1.55802">
        <ele>93</ele>
        <time>2026-02-12T14:50:58.000Z</time>
      </trkpt>
      <trkpt lat="43.37549" lon="-1.55872">
        <ele>91</ele>
        <time>2026-02-12T14:51:09.000Z</time>
      </trkpt>
      <trkpt lat="43.37575" lon="-1.55943">
        <ele>88</ele>
        <time>2026-02-12T14:51:20.000Z</time>
      </trkpt>
      <trkpt lat="43.37577" lon="-1.55959">
        <ele>87</ele>
        <time>2026-02-12T14:51:22.000Z</time>
      </trkpt>
      <trkpt lat="43.37573" lon="-1.55983">
        <ele>86</ele>
        <time>2026-02-12T14:51:25.000Z</time>
      </trkpt>
      <trkpt lat="43.37562" lon="-1.56002">
        <ele>86</ele>
        <time>2026-02-12T14:51:28.000Z</time>
      </trkpt>
      <trkpt lat="43.37515" lon="-1.56045">
        <ele>87</ele>
        <time>2026-02-12T14:51:38.000Z</time>
      </trkpt>
      <trkpt lat="43.37514" lon="-1.56077">
        <ele>86</ele>
        <time>2026-02-12T14:51:42.000Z</time>
      </trkpt>
      <trkpt lat="43.37534" lon="-1.56206">
        <ele>85</ele>
        <time>2026-02-12T14:51:59.000Z</time>
      </trkpt>
      <trkpt lat="43.37544" lon="-1.56266">
        <ele>87</ele>
        <time>2026-02-12T14:52:07.000Z</time>
      </trkpt>
      <trkpt lat="43.37556" lon="-1.56315">
        <ele>86</ele>
        <time>2026-02-12T14:52:14.000Z</time>
      </trkpt>
      <trkpt lat="43.37716" lon="-1.56354">
        <ele>78</ele>
        <time>2026-02-12T14:52:43.000Z</time>
      </trkpt>
      <trkpt lat="43.37741" lon="-1.56366">
        <ele>78</ele>
        <time>2026-02-12T14:52:47.000Z</time>
      </trkpt>
      <trkpt lat="43.3778" lon="-1.56395">
        <ele>77</ele>
        <time>2026-02-12T14:52:55.000Z</time>
      </trkpt>
      <trkpt lat="43.3782" lon="-1.56433">
        <ele>77</ele>
        <time>2026-02-12T14:53:04.000Z</time>
      </trkpt>
      <trkpt lat="43.38007" lon="-1.5663">
        <ele>80</ele>
        <time>2026-02-12T14:53:46.000Z</time>
      </trkpt>
      <trkpt lat="43.38022" lon="-1.56649">
        <ele>82</ele>
        <time>2026-02-12T14:53:50.000Z</time>
      </trkpt>
      <trkpt lat="43.38042" lon="-1.5668">
        <ele>83</ele>
        <time>2026-02-12T14:53:55.000Z</time>
      </trkpt>
      <trkpt lat="43.38057" lon="-1.56695">
        <ele>84</ele>
        <time>2026-02-12T14:53:58.000Z</time>
      </trkpt>
      <trkpt lat="43.38073" lon="-1.56703">
        <ele>84</ele>
        <time>2026-02-12T14:54:01.000Z</time>
      </trkpt>
      <trkpt lat="43.38092" lon="-1.56706">
        <ele>85</ele>
        <time>2026-02-12T14:54:05.000Z</time>
      </trkpt>
      <trkpt lat="43.38139" lon="-1.56707">
        <ele>86</ele>
        <time>2026-02-12T14:54:13.000Z</time>
      </trkpt>
      <trkpt lat="43.38207" lon="-1.56714">
        <ele>90</ele>
        <time>2026-02-12T14:54:25.000Z</time>
      </trkpt>
      <trkpt lat="43.38205" lon="-1.56741">
        <ele>90</ele>
        <time>2026-02-12T14:54:29.000Z</time>
      </trkpt>
      <trkpt lat="43.38208" lon="-1.56756">
        <ele>90</ele>
        <time>2026-02-12T14:54:31.000Z</time>
      </trkpt>
      <trkpt lat="43.38227" lon="-1.56786">
        <ele>91</ele>
        <time>2026-02-12T14:54:36.000Z</time>
      </trkpt>
      <trkpt lat="43.3825" lon="-1.56814">
        <ele>93</ele>
        <time>2026-02-12T14:54:41.000Z</time>
      </trkpt>
      <trkpt lat="43.38274" lon="-1.5683">
        <ele>92</ele>
        <time>2026-02-12T14:54:46.000Z</time>
      </trkpt>
      <trkpt lat="43.38286" lon="-1.56846">
        <ele>92</ele>
        <time>2026-02-12T14:54:49.000Z</time>
      </trkpt>
      <trkpt lat="43.38302" lon="-1.56875">
        <ele>92</ele>
        <time>2026-02-12T14:54:54.000Z</time>
      </trkpt>
      <trkpt lat="43.38314" lon="-1.56913">
        <ele>91</ele>
        <time>2026-02-12T14:54:59.000Z</time>
      </trkpt>
      <trkpt lat="43.38318" lon="-1.56959">
        <ele>92</ele>
        <time>2026-02-12T14:55:05.000Z</time>
      </trkpt>
      <trkpt lat="43.38315" lon="-1.56991">
        <ele>93</ele>
        <time>2026-02-12T14:55:09.000Z</time>
      </trkpt>
      <trkpt lat="43.38309" lon="-1.57023">
        <ele>93</ele>
        <time>2026-02-12T14:55:14.000Z</time>
      </trkpt>
      <trkpt lat="43.383" lon="-1.57051">
        <ele>93</ele>
        <time>2026-02-12T14:55:17.000Z</time>
      </trkpt>
      <trkpt lat="43.38289" lon="-1.57074">
        <ele>92</ele>
        <time>2026-02-12T14:55:21.000Z</time>
      </trkpt>
      <trkpt lat="43.38267" lon="-1.57104">
        <ele>92</ele>
        <time>2026-02-12T14:55:27.000Z</time>
      </trkpt>
      <trkpt lat="43.38254" lon="-1.57132">
        <ele>92</ele>
        <time>2026-02-12T14:55:31.000Z</time>
      </trkpt>
      <trkpt lat="43.38241" lon="-1.57172">
        <ele>92</ele>
        <time>2026-02-12T14:55:36.000Z</time>
      </trkpt>
      <trkpt lat="43.38216" lon="-1.57298">
        <ele>94</ele>
        <time>2026-02-12T14:55:53.000Z</time>
      </trkpt>
      <trkpt lat="43.38215" lon="-1.57365">
        <ele>94</ele>
        <time>2026-02-12T14:56:02.000Z</time>
      </trkpt>
      <trkpt lat="43.38216" lon="-1.57397">
        <ele>94</ele>
        <time>2026-02-12T14:56:06.000Z</time>
      </trkpt>
      <trkpt lat="43.38225" lon="-1.57427">
        <ele>94</ele>
        <time>2026-02-12T14:56:10.000Z</time>
      </trkpt>
      <trkpt lat="43.38237" lon="-1.57453">
        <ele>94</ele>
        <time>2026-02-12T14:56:14.000Z</time>
      </trkpt>
      <trkpt lat="43.38252" lon="-1.57473">
        <ele>93</ele>
        <time>2026-02-12T14:56:18.000Z</time>
      </trkpt>
      <trkpt lat="43.38279" lon="-1.57494">
        <ele>92</ele>
        <time>2026-02-12T14:56:24.000Z</time>
      </trkpt>
      <trkpt lat="43.3829" lon="-1.57507">
        <ele>92</ele>
        <time>2026-02-12T14:56:26.000Z</time>
      </trkpt>
      <trkpt lat="43.38301" lon="-1.57526">
        <ele>92</ele>
        <time>2026-02-12T14:56:29.000Z</time>
      </trkpt>
      <trkpt lat="43.38307" lon="-1.57543">
        <ele>92</ele>
        <time>2026-02-12T14:56:32.000Z</time>
      </trkpt>
      <trkpt lat="43.38313" lon="-1.57565">
        <ele>91</ele>
        <time>2026-02-12T14:56:35.000Z</time>
      </trkpt>
      <trkpt lat="43.38315" lon="-1.57602">
        <ele>91</ele>
        <time>2026-02-12T14:56:40.000Z</time>
      </trkpt>
      <trkpt lat="43.38302" lon="-1.57745">
        <ele>96</ele>
        <time>2026-02-12T14:56:58.000Z</time>
      </trkpt>
      <trkpt lat="43.38292" lon="-1.57809">
        <ele>100</ele>
        <time>2026-02-12T14:57:07.000Z</time>
      </trkpt>
      <trkpt lat="43.38258" lon="-1.57924">
        <ele>101</ele>
        <time>2026-02-12T14:57:23.000Z</time>
      </trkpt>
      <trkpt lat="43.38252" lon="-1.57943">
        <ele>100</ele>
        <time>2026-02-12T14:57:25.000Z</time>
      </trkpt>
      <trkpt lat="43.38242" lon="-1.57961">
        <ele>98</ele>
        <time>2026-02-12T14:57:28.000Z</time>
      </trkpt>
      <trkpt lat="43.38225" lon="-1.57979">
        <ele>97</ele>
        <time>2026-02-12T14:57:32.000Z</time>
      </trkpt>
      <trkpt lat="43.38209" lon="-1.5799">
        <ele>97</ele>
        <time>2026-02-12T14:57:35.000Z</time>
      </trkpt>
      <trkpt lat="43.38189" lon="-1.57997">
        <ele>97</ele>
        <time>2026-02-12T14:57:39.000Z</time>
      </trkpt>
      <trkpt lat="43.38057" lon="-1.58018">
        <ele>94</ele>
        <time>2026-02-12T14:58:03.000Z</time>
      </trkpt>
      <trkpt lat="43.38042" lon="-1.58022">
        <ele>93</ele>
        <time>2026-02-12T14:58:05.000Z</time>
      </trkpt>
      <trkpt lat="43.38009" lon="-1.58039">
        <ele>90</ele>
        <time>2026-02-12T14:58:12.000Z</time>
      </trkpt>
      <trkpt lat="43.37986" lon="-1.58063">
        <ele>88</ele>
        <time>2026-02-12T14:58:17.000Z</time>
      </trkpt>
      <trkpt lat="43.37969" lon="-1.58094">
        <ele>86</ele>
        <time>2026-02-12T14:58:22.000Z</time>
      </trkpt>
      <trkpt lat="43.3796" lon="-1.58133">
        <ele>85</ele>
        <time>2026-02-12T14:58:27.000Z</time>
      </trkpt>
      <trkpt lat="43.37947" lon="-1.58177">
        <ele>85</ele>
        <time>2026-02-12T14:58:33.000Z</time>
      </trkpt>
      <trkpt lat="43.37934" lon="-1.58205">
        <ele>84</ele>
        <time>2026-02-12T14:58:38.000Z</time>
      </trkpt>
      <trkpt lat="43.37905" lon="-1.58252">
        <ele>83</ele>
        <time>2026-02-12T14:58:46.000Z</time>
      </trkpt>
      <trkpt lat="43.379" lon="-1.58269">
        <ele>82</ele>
        <time>2026-02-12T14:58:48.000Z</time>
      </trkpt>
      <trkpt lat="43.37895" lon="-1.58294">
        <ele>81</ele>
        <time>2026-02-12T14:58:51.000Z</time>
      </trkpt>
      <trkpt lat="43.37893" lon="-1.58317">
        <ele>80</ele>
        <time>2026-02-12T14:58:54.000Z</time>
      </trkpt>
      <trkpt lat="43.37896" lon="-1.58355">
        <ele>79</ele>
        <time>2026-02-12T14:58:59.000Z</time>
      </trkpt>
      <trkpt lat="43.37895" lon="-1.58377">
        <ele>78</ele>
        <time>2026-02-12T14:59:02.000Z</time>
      </trkpt>
      <trkpt lat="43.37892" lon="-1.5839">
        <ele>77</ele>
        <time>2026-02-12T14:59:04.000Z</time>
      </trkpt>
      <trkpt lat="43.37886" lon="-1.58405">
        <ele>77</ele>
        <time>2026-02-12T14:59:06.000Z</time>
      </trkpt>
      <trkpt lat="43.37872" lon="-1.58427">
        <ele>78</ele>
        <time>2026-02-12T14:59:10.000Z</time>
      </trkpt>
      <trkpt lat="43.3786" lon="-1.58462">
        <ele>79</ele>
        <time>2026-02-12T14:59:15.000Z</time>
      </trkpt>
      <trkpt lat="43.37857" lon="-1.58484">
        <ele>78</ele>
        <time>2026-02-12T14:59:18.000Z</time>
      </trkpt>
      <trkpt lat="43.37857" lon="-1.58507">
        <ele>78</ele>
        <time>2026-02-12T14:59:21.000Z</time>
      </trkpt>
      <trkpt lat="43.37865" lon="-1.58557">
        <ele>76</ele>
        <time>2026-02-12T14:59:27.000Z</time>
      </trkpt>
      <trkpt lat="43.37865" lon="-1.58578">
        <ele>75</ele>
        <time>2026-02-12T14:59:30.000Z</time>
      </trkpt>
      <trkpt lat="43.37848" lon="-1.58643">
        <ele>75</ele>
        <time>2026-02-12T14:59:39.000Z</time>
      </trkpt>
      <trkpt lat="43.37836" lon="-1.58691">
        <ele>75</ele>
        <time>2026-02-12T14:59:46.000Z</time>
      </trkpt>
      <trkpt lat="43.37831" lon="-1.58721">
        <ele>75</ele>
        <time>2026-02-12T14:59:50.000Z</time>
      </trkpt>
      <trkpt lat="43.3783" lon="-1.58744">
        <ele>75</ele>
        <time>2026-02-12T14:59:52.000Z</time>
      </trkpt>
      <trkpt lat="43.37844" lon="-1.5885">
        <ele>78</ele>
        <time>2026-02-12T15:00:06.000Z</time>
      </trkpt>
      <trkpt lat="43.37843" lon="-1.58874">
        <ele>78</ele>
        <time>2026-02-12T15:00:10.000Z</time>
      </trkpt>
      <trkpt lat="43.37838" lon="-1.58898">
        <ele>79</ele>
        <time>2026-02-12T15:00:13.000Z</time>
      </trkpt>
      <trkpt lat="43.3783" lon="-1.58918">
        <ele>79</ele>
        <time>2026-02-12T15:00:16.000Z</time>
      </trkpt>
      <trkpt lat="43.37805" lon="-1.5896">
        <ele>77</ele>
        <time>2026-02-12T15:00:23.000Z</time>
      </trkpt>
      <trkpt lat="43.37792" lon="-1.58973">
        <ele>77</ele>
        <time>2026-02-12T15:00:26.000Z</time>
      </trkpt>
      <trkpt lat="43.37781" lon="-1.58982">
        <ele>76</ele>
        <time>2026-02-12T15:00:28.000Z</time>
      </trkpt>
      <trkpt lat="43.37768" lon="-1.58986">
        <ele>76</ele>
        <time>2026-02-12T15:00:30.000Z</time>
      </trkpt>
      <trkpt lat="43.37739" lon="-1.58991">
        <ele>77</ele>
        <time>2026-02-12T15:00:35.000Z</time>
      </trkpt>
      <trkpt lat="43.37709" lon="-1.59005">
        <ele>77</ele>
        <time>2026-02-12T15:00:41.000Z</time>
      </trkpt>
      <trkpt lat="43.37676" lon="-1.59026">
        <ele>78</ele>
        <time>2026-02-12T15:00:48.000Z</time>
      </trkpt>
      <trkpt lat="43.37653" lon="-1.59056">
        <ele>81</ele>
        <time>2026-02-12T15:00:53.000Z</time>
      </trkpt>
      <trkpt lat="43.37641" lon="-1.59065">
        <ele>82</ele>
        <time>2026-02-12T15:00:56.000Z</time>
      </trkpt>
      <trkpt lat="43.37625" lon="-1.59072">
        <ele>83</ele>
        <time>2026-02-12T15:00:59.000Z</time>
      </trkpt>
      <trkpt lat="43.37601" lon="-1.59091">
        <ele>84</ele>
        <time>2026-02-12T15:01:04.000Z</time>
      </trkpt>
      <trkpt lat="43.37536" lon="-1.59102">
        <ele>88</ele>
        <time>2026-02-12T15:01:15.000Z</time>
      </trkpt>
      <trkpt lat="43.37522" lon="-1.5911">
        <ele>88</ele>
        <time>2026-02-12T15:01:18.000Z</time>
      </trkpt>
      <trkpt lat="43.37497" lon="-1.5913">
        <ele>89</ele>
        <time>2026-02-12T15:01:23.000Z</time>
      </trkpt>
      <trkpt lat="43.37487" lon="-1.59145">
        <ele>87</ele>
        <time>2026-02-12T15:01:26.000Z</time>
      </trkpt>
      <trkpt lat="43.3747" lon="-1.59186">
        <ele>84</ele>
        <time>2026-02-12T15:01:32.000Z</time>
      </trkpt>
      <trkpt lat="43.37502" lon="-1.59383">
        <ele>88</ele>
        <time>2026-02-12T15:01:58.000Z</time>
      </trkpt>
      <trkpt lat="43.37507" lon="-1.59403">
        <ele>88</ele>
        <time>2026-02-12T15:02:01.000Z</time>
      </trkpt>
      <trkpt lat="43.37512" lon="-1.59415">
        <ele>88</ele>
        <time>2026-02-12T15:02:02.000Z</time>
      </trkpt>
      <trkpt lat="43.37527" lon="-1.5943">
        <ele>87</ele>
        <time>2026-02-12T15:02:06.000Z</time>
      </trkpt>
      <trkpt lat="43.37505" lon="-1.59447">
        <ele>87</ele>
        <time>2026-02-12T15:02:10.000Z</time>
      </trkpt>
      <trkpt lat="43.3749" lon="-1.59452">
        <ele>87</ele>
        <time>2026-02-12T15:02:13.000Z</time>
      </trkpt>
      <trkpt lat="43.37454" lon="-1.5945">
        <ele>84</ele>
        <time>2026-02-12T15:02:19.000Z</time>
      </trkpt>
      <trkpt lat="43.37432" lon="-1.59443">
        <ele>83</ele>
        <time>2026-02-12T15:02:23.000Z</time>
      </trkpt>
      <trkpt lat="43.37416" lon="-1.5944">
        <ele>82</ele>
        <time>2026-02-12T15:02:26.000Z</time>
      </trkpt>
      <trkpt lat="43.37362" lon="-1.59464">
        <ele>81</ele>
        <time>2026-02-12T15:02:36.000Z</time>
      </trkpt>
      <trkpt lat="43.37345" lon="-1.59443">
        <ele>81</ele>
        <time>2026-02-12T15:02:40.000Z</time>
      </trkpt>
      <trkpt lat="43.37308" lon="-1.59416">
        <ele>79</ele>
        <time>2026-02-12T15:02:48.000Z</time>
      </trkpt>
      <trkpt lat="43.37231" lon="-1.59367">
        <ele>71</ele>
        <time>2026-02-12T15:03:03.000Z</time>
      </trkpt>
      <trkpt lat="43.37207" lon="-1.59339">
        <ele>68</ele>
        <time>2026-02-12T15:03:09.000Z</time>
      </trkpt>
      <trkpt lat="43.37177" lon="-1.59313">
        <ele>66</ele>
        <time>2026-02-12T15:03:15.000Z</time>
      </trkpt>
      <trkpt lat="43.36981" lon="-1.59168">
        <ele>57</ele>
        <time>2026-02-12T15:03:54.000Z</time>
      </trkpt>
      <trkpt lat="43.36955" lon="-1.59163">
        <ele>57</ele>
        <time>2026-02-12T15:03:59.000Z</time>
      </trkpt>
      <trkpt lat="43.36925" lon="-1.59181">
        <ele>55</ele>
        <time>2026-02-12T15:04:05.000Z</time>
      </trkpt>
      <trkpt lat="43.36904" lon="-1.59186">
        <ele>53</ele>
        <time>2026-02-12T15:04:09.000Z</time>
      </trkpt>
      <trkpt lat="43.36881" lon="-1.59181">
        <ele>49</ele>
        <time>2026-02-12T15:04:13.000Z</time>
      </trkpt>
      <trkpt lat="43.36821" lon="-1.59061">
        <ele>37</ele>
        <time>2026-02-12T15:04:32.000Z</time>
      </trkpt>
      <trkpt lat="43.36788" lon="-1.59015">
        <ele>30</ele>
        <time>2026-02-12T15:04:40.000Z</time>
      </trkpt>
      <trkpt lat="43.36771" lon="-1.59011">
        <ele>28</ele>
        <time>2026-02-12T15:04:43.000Z</time>
      </trkpt>
      <trkpt lat="43.3675" lon="-1.5901">
        <ele>26</ele>
        <time>2026-02-12T15:04:47.000Z</time>
      </trkpt>
      <trkpt lat="43.36745" lon="-1.59013">
        <ele>26</ele>
        <time>2026-02-12T15:04:48.000Z</time>
      </trkpt>
      <trkpt lat="43.36716" lon="-1.59017">
        <ele>24</ele>
        <time>2026-02-12T15:04:53.000Z</time>
      </trkpt>
      <trkpt lat="43.36688" lon="-1.58999">
        <ele>21</ele>
        <time>2026-02-12T15:04:59.000Z</time>
      </trkpt>
      <trkpt lat="43.36676" lon="-1.58996">
        <ele>21</ele>
        <time>2026-02-12T15:05:01.000Z</time>
      </trkpt>
      <trkpt lat="43.3666" lon="-1.59002">
        <ele>19</ele>
        <time>2026-02-12T15:05:04.000Z</time>
      </trkpt>
      <trkpt lat="43.366" lon="-1.59037">
        <ele>14</ele>
        <time>2026-02-12T15:05:15.000Z</time>
      </trkpt>
      <trkpt lat="43.36515" lon="-1.59037">
        <ele>10</ele>
        <time>2026-02-12T15:05:30.000Z</time>
      </trkpt>
      <trkpt lat="43.36482" lon="-1.59044">
        <ele>9</ele>
        <time>2026-02-12T15:05:36.000Z</time>
      </trkpt>
      <trkpt lat="43.36581" lon="-1.59376">
        <ele>9</ele>
        <time>2026-02-12T15:06:23.000Z</time>
      </trkpt>
      <trkpt lat="43.36589" lon="-1.5943">
        <ele>9</ele>
        <time>2026-02-12T15:06:30.000Z</time>
      </trkpt>
      <trkpt lat="43.36592" lon="-1.59482">
        <ele>9</ele>
        <time>2026-02-12T15:06:37.000Z</time>
      </trkpt>
      <trkpt lat="43.36588" lon="-1.59546">
        <ele>11</ele>
        <time>2026-02-12T15:06:45.000Z</time>
      </trkpt>
      <trkpt lat="43.36567" lon="-1.59809">
        <ele>18</ele>
        <time>2026-02-12T15:07:19.000Z</time>
      </trkpt>
      <trkpt lat="43.36562" lon="-1.59843">
        <ele>18</ele>
        <time>2026-02-12T15:07:24.000Z</time>
      </trkpt>
      <trkpt lat="43.36549" lon="-1.59873">
        <ele>17</ele>
        <time>2026-02-12T15:07:28.000Z</time>
      </trkpt>
      <trkpt lat="43.36533" lon="-1.59897">
        <ele>16</ele>
        <time>2026-02-12T15:07:32.000Z</time>
      </trkpt>
      <trkpt lat="43.36476" lon="-1.5994">
        <ele>14</ele>
        <time>2026-02-12T15:07:44.000Z</time>
      </trkpt>
      <trkpt lat="43.36447" lon="-1.59965">
        <ele>14</ele>
        <time>2026-02-12T15:07:50.000Z</time>
      </trkpt>
      <trkpt lat="43.36418" lon="-1.59996">
        <ele>13</ele>
        <time>2026-02-12T15:07:57.000Z</time>
      </trkpt>
      <trkpt lat="43.36404" lon="-1.60015">
        <ele>14</ele>
        <time>2026-02-12T15:08:00.000Z</time>
      </trkpt>
      <trkpt lat="43.36387" lon="-1.60042">
        <ele>15</ele>
        <time>2026-02-12T15:08:05.000Z</time>
      </trkpt>
      <trkpt lat="43.36371" lon="-1.60073">
        <ele>15</ele>
        <time>2026-02-12T15:08:10.000Z</time>
      </trkpt>
      <trkpt lat="43.36336" lon="-1.60166">
        <ele>16</ele>
        <time>2026-02-12T15:08:23.000Z</time>
      </trkpt>
      <trkpt lat="43.36316" lon="-1.60201">
        <ele>20</ele>
        <time>2026-02-12T15:08:29.000Z</time>
      </trkpt>
      <trkpt lat="43.36299" lon="-1.60225">
        <ele>21</ele>
        <time>2026-02-12T15:08:33.000Z</time>
      </trkpt>
      <trkpt lat="43.36264" lon="-1.60257">
        <ele>19</ele>
        <time>2026-02-12T15:08:41.000Z</time>
      </trkpt>
      <trkpt lat="43.36211" lon="-1.60302">
        <ele>16</ele>
        <time>2026-02-12T15:08:52.000Z</time>
      </trkpt>
      <trkpt lat="43.36173" lon="-1.60338">
        <ele>13</ele>
        <time>2026-02-12T15:09:00.000Z</time>
      </trkpt>
      <trkpt lat="43.36153" lon="-1.60362">
        <ele>14</ele>
        <time>2026-02-12T15:09:05.000Z</time>
      </trkpt>
      <trkpt lat="43.36138" lon="-1.60384">
        <ele>15</ele>
        <time>2026-02-12T15:09:09.000Z</time>
      </trkpt>
      <trkpt lat="43.36126" lon="-1.60409">
        <ele>15</ele>
        <time>2026-02-12T15:09:12.000Z</time>
      </trkpt>
      <trkpt lat="43.36109" lon="-1.60462">
        <ele>16</ele>
        <time>2026-02-12T15:09:20.000Z</time>
      </trkpt>
      <trkpt lat="43.36103" lon="-1.60494">
        <ele>17</ele>
        <time>2026-02-12T15:09:24.000Z</time>
      </trkpt>
      <trkpt lat="43.36102" lon="-1.60518">
        <ele>17</ele>
        <time>2026-02-12T15:09:27.000Z</time>
      </trkpt>
      <trkpt lat="43.36102" lon="-1.60551">
        <ele>17</ele>
        <time>2026-02-12T15:09:32.000Z</time>
      </trkpt>
      <trkpt lat="43.36104" lon="-1.60585">
        <ele>18</ele>
        <time>2026-02-12T15:09:36.000Z</time>
      </trkpt>
      <trkpt lat="43.36118" lon="-1.60724">
        <ele>18</ele>
        <time>2026-02-12T15:09:54.000Z</time>
      </trkpt>
      <trkpt lat="43.36119" lon="-1.6075">
        <ele>18</ele>
        <time>2026-02-12T15:09:58.000Z</time>
      </trkpt>
      <trkpt lat="43.36113" lon="-1.60838">
        <ele>16</ele>
        <time>2026-02-12T15:10:09.000Z</time>
      </trkpt>
      <trkpt lat="43.36105" lon="-1.61018">
        <ele>17</ele>
        <time>2026-02-12T15:10:32.000Z</time>
      </trkpt>
      <trkpt lat="43.36101" lon="-1.61078">
        <ele>15</ele>
        <time>2026-02-12T15:10:40.000Z</time>
      </trkpt>
      <trkpt lat="43.36091" lon="-1.61139">
        <ele>13</ele>
        <time>2026-02-12T15:10:48.000Z</time>
      </trkpt>
      <trkpt lat="43.36075" lon="-1.61188">
        <ele>12</ele>
        <time>2026-02-12T15:10:55.000Z</time>
      </trkpt>
      <trkpt lat="43.36058" lon="-1.61226">
        <ele>11</ele>
        <time>2026-02-12T15:11:01.000Z</time>
      </trkpt>
      <trkpt lat="43.36033" lon="-1.61268">
        <ele>11</ele>
        <time>2026-02-12T15:11:08.000Z</time>
      </trkpt>
      <trkpt lat="43.35934" lon="-1.61396">
        <ele>16</ele>
        <time>2026-02-12T15:11:32.000Z</time>
      </trkpt>
      <trkpt lat="43.35913" lon="-1.61419">
        <ele>16</ele>
        <time>2026-02-12T15:11:37.000Z</time>
      </trkpt>
      <trkpt lat="43.35815" lon="-1.61503">
        <ele>12</ele>
        <time>2026-02-12T15:11:57.000Z</time>
      </trkpt>
      <trkpt lat="43.35787" lon="-1.61535">
        <ele>14</ele>
        <time>2026-02-12T15:12:04.000Z</time>
      </trkpt>
      <trkpt lat="43.35515" lon="-1.61963">
        <ele>18</ele>
        <time>2026-02-12T15:13:17.000Z</time>
      </trkpt>
      <trkpt lat="43.35486" lon="-1.62001">
        <ele>18</ele>
        <time>2026-02-12T15:13:25.000Z</time>
      </trkpt>
      <trkpt lat="43.35432" lon="-1.62045">
        <ele>21</ele>
        <time>2026-02-12T15:13:36.000Z</time>
      </trkpt>
      <trkpt lat="43.35407" lon="-1.6206">
        <ele>21</ele>
        <time>2026-02-12T15:13:41.000Z</time>
      </trkpt>
      <trkpt lat="43.3524" lon="-1.62126">
        <ele>14</ele>
        <time>2026-02-12T15:14:12.000Z</time>
      </trkpt>
      <trkpt lat="43.35214" lon="-1.62143">
        <ele>12</ele>
        <time>2026-02-12T15:14:17.000Z</time>
      </trkpt>
      <trkpt lat="43.35201" lon="-1.62157">
        <ele>12</ele>
        <time>2026-02-12T15:14:20.000Z</time>
      </trkpt>
      <trkpt lat="43.35181" lon="-1.62185">
        <ele>11</ele>
        <time>2026-02-12T15:14:25.000Z</time>
      </trkpt>
      <trkpt lat="43.35127" lon="-1.62289">
        <ele>11</ele>
        <time>2026-02-12T15:14:41.000Z</time>
      </trkpt>
      <trkpt lat="43.35149" lon="-1.62344">
        <ele>17</ele>
        <time>2026-02-12T15:14:49.000Z</time>
      </trkpt>
      <trkpt lat="43.3515" lon="-1.6235">
        <ele>18</ele>
        <time>2026-02-12T15:14:50.000Z</time>
      </trkpt>
      <trkpt lat="43.35138" lon="-1.62408">
        <ele>18</ele>
        <time>2026-02-12T15:14:58.000Z</time>
      </trkpt>
      <trkpt lat="43.35141" lon="-1.62443">
        <ele>18</ele>
        <time>2026-02-12T15:15:02.000Z</time>
      </trkpt>
      <trkpt lat="43.3515" lon="-1.62462">
        <ele>20</ele>
        <time>2026-02-12T15:15:05.000Z</time>
      </trkpt>
      <trkpt lat="43.35169" lon="-1.62465">
        <ele>23</ele>
        <time>2026-02-12T15:15:09.000Z</time>
      </trkpt>
      <trkpt lat="43.35173" lon="-1.62474">
        <ele>23</ele>
        <time>2026-02-12T15:15:10.000Z</time>
      </trkpt>
      <trkpt lat="43.35213" lon="-1.62484">
        <ele>27</ele>
        <time>2026-02-12T15:15:17.000Z</time>
      </trkpt>
      <trkpt lat="43.35255" lon="-1.62457">
        <ele>33</ele>
        <time>2026-02-12T15:15:26.000Z</time>
      </trkpt>
      <trkpt lat="43.35294" lon="-1.62423">
        <ele>36</ele>
        <time>2026-02-12T15:15:34.000Z</time>
      </trkpt>
      <trkpt lat="43.35318" lon="-1.62399">
        <ele>38</ele>
        <time>2026-02-12T15:15:39.000Z</time>
      </trkpt>
      <trkpt lat="43.35335" lon="-1.62378">
        <ele>40</ele>
        <time>2026-02-12T15:15:43.000Z</time>
      </trkpt>
      <trkpt lat="43.35355" lon="-1.62361">
        <ele>42</ele>
        <time>2026-02-12T15:15:47.000Z</time>
      </trkpt>
      <trkpt lat="43.35394" lon="-1.62329">
        <ele>45</ele>
        <time>2026-02-12T15:15:56.000Z</time>
      </trkpt>
      <trkpt lat="43.35451" lon="-1.62287">
        <ele>47</ele>
        <time>2026-02-12T15:16:07.000Z</time>
      </trkpt>
      <trkpt lat="43.35524" lon="-1.62224">
        <ele>47</ele>
        <time>2026-02-12T15:16:22.000Z</time>
      </trkpt>
      <trkpt lat="43.35545" lon="-1.62214">
        <ele>47</ele>
        <time>2026-02-12T15:16:26.000Z</time>
      </trkpt>
      <trkpt lat="43.35559" lon="-1.62216">
        <ele>47</ele>
        <time>2026-02-12T15:16:29.000Z</time>
      </trkpt>
      <trkpt lat="43.35571" lon="-1.62202">
        <ele>47</ele>
        <time>2026-02-12T15:16:32.000Z</time>
      </trkpt>
      <trkpt lat="43.35652" lon="-1.6215">
        <ele>48</ele>
        <time>2026-02-12T15:16:48.000Z</time>
      </trkpt>
      <trkpt lat="43.35754" lon="-1.62068">
        <ele>46</ele>
        <time>2026-02-12T15:17:09.000Z</time>
      </trkpt>
      <trkpt lat="43.35872" lon="-1.6197">
        <ele>46</ele>
        <time>2026-02-12T15:17:33.000Z</time>
      </trkpt>
      <trkpt lat="43.35962" lon="-1.61912">
        <ele>52</ele>
        <time>2026-02-12T15:17:51.000Z</time>
      </trkpt>
      <trkpt lat="43.3599" lon="-1.6186">
        <ele>56</ele>
        <time>2026-02-12T15:17:59.000Z</time>
      </trkpt>
      <trkpt lat="43.36032" lon="-1.61833">
        <ele>58</ele>
        <time>2026-02-12T15:18:07.000Z</time>
      </trkpt>
      <trkpt lat="43.36041" lon="-1.6183">
        <ele>58</ele>
        <time>2026-02-12T15:18:09.000Z</time>
      </trkpt>
      <trkpt lat="43.36072" lon="-1.61835">
        <ele>58</ele>
        <time>2026-02-12T15:18:15.000Z</time>
      </trkpt>
      <trkpt lat="43.36107" lon="-1.6183">
        <ele>59</ele>
        <time>2026-02-12T15:18:21.000Z</time>
      </trkpt>
      <trkpt lat="43.36191" lon="-1.61783">
        <ele>63</ele>
        <time>2026-02-12T15:18:37.000Z</time>
      </trkpt>
      <trkpt lat="43.36201" lon="-1.61773">
        <ele>63</ele>
        <time>2026-02-12T15:18:39.000Z</time>
      </trkpt>
      <trkpt lat="43.3621" lon="-1.61751">
        <ele>64</ele>
        <time>2026-02-12T15:18:42.000Z</time>
      </trkpt>
      <trkpt lat="43.36239" lon="-1.61723">
        <ele>64</ele>
        <time>2026-02-12T15:18:49.000Z</time>
      </trkpt>
      <trkpt lat="43.36296" lon="-1.61691">
        <ele>65</ele>
        <time>2026-02-12T15:19:00.000Z</time>
      </trkpt>
      <trkpt lat="43.36334" lon="-1.61641">
        <ele>68</ele>
        <time>2026-02-12T15:19:09.000Z</time>
      </trkpt>
      <trkpt lat="43.36341" lon="-1.61617">
        <ele>69</ele>
        <time>2026-02-12T15:19:12.000Z</time>
      </trkpt>
      <trkpt lat="43.36345" lon="-1.61596">
        <ele>69</ele>
        <time>2026-02-12T15:19:15.000Z</time>
      </trkpt>
      <trkpt lat="43.36354" lon="-1.61555">
        <ele>70</ele>
        <time>2026-02-12T15:19:21.000Z</time>
      </trkpt>
      <trkpt lat="43.3637" lon="-1.61514">
        <ele>74</ele>
        <time>2026-02-12T15:19:27.000Z</time>
      </trkpt>
      <trkpt lat="43.36398" lon="-1.61479">
        <ele>79</ele>
        <time>2026-02-12T15:19:33.000Z</time>
      </trkpt>
      <trkpt lat="43.36412" lon="-1.61409">
        <ele>82</ele>
        <time>2026-02-12T15:19:43.000Z</time>
      </trkpt>
      <trkpt lat="43.36429" lon="-1.61347">
        <ele>78</ele>
        <time>2026-02-12T15:19:51.000Z</time>
      </trkpt>
      <trkpt lat="43.36427" lon="-1.61254">
        <ele>77</ele>
        <time>2026-02-12T15:20:03.000Z</time>
      </trkpt>
      <trkpt lat="43.36478" lon="-1.61169">
        <ele>84</ele>
        <time>2026-02-12T15:20:18.000Z</time>
      </trkpt>
      <trkpt lat="43.36494" lon="-1.61129">
        <ele>88</ele>
        <time>2026-02-12T15:20:24.000Z</time>
      </trkpt>
      <trkpt lat="43.36508" lon="-1.6107">
        <ele>91</ele>
        <time>2026-02-12T15:20:32.000Z</time>
      </trkpt>
      <trkpt lat="43.36549" lon="-1.60957">
        <ele>94</ele>
        <time>2026-02-12T15:20:48.000Z</time>
      </trkpt>
      <trkpt lat="43.36558" lon="-1.60915">
        <ele>96</ele>
        <time>2026-02-12T15:20:54.000Z</time>
      </trkpt>
      <trkpt lat="43.36598" lon="-1.60923">
        <ele>96</ele>
        <time>2026-02-12T15:21:01.000Z</time>
      </trkpt>
      <trkpt lat="43.36648" lon="-1.60954">
        <ele>91</ele>
        <time>2026-02-12T15:21:11.000Z</time>
      </trkpt>
      <trkpt lat="43.36655" lon="-1.60955">
        <ele>90</ele>
        <time>2026-02-12T15:21:12.000Z</time>
      </trkpt>
      <trkpt lat="43.36659" lon="-1.60953">
        <ele>90</ele>
        <time>2026-02-12T15:21:13.000Z</time>
      </trkpt>
      <trkpt lat="43.36721" lon="-1.60867">
        <ele>86</ele>
        <time>2026-02-12T15:21:28.000Z</time>
      </trkpt>
      <trkpt lat="43.36757" lon="-1.60828">
        <ele>83</ele>
        <time>2026-02-12T15:21:36.000Z</time>
      </trkpt>
      <trkpt lat="43.36787" lon="-1.608">
        <ele>82</ele>
        <time>2026-02-12T15:21:43.000Z</time>
      </trkpt>
      <trkpt lat="43.36808" lon="-1.6079">
        <ele>81</ele>
        <time>2026-02-12T15:21:47.000Z</time>
      </trkpt>
      <trkpt lat="43.36862" lon="-1.60773">
        <ele>78</ele>
        <time>2026-02-12T15:21:57.000Z</time>
      </trkpt>
      <trkpt lat="43.36933" lon="-1.60668">
        <ele>80</ele>
        <time>2026-02-12T15:22:15.000Z</time>
      </trkpt>
      <trkpt lat="43.37027" lon="-1.60608">
        <ele>78</ele>
        <time>2026-02-12T15:22:34.000Z</time>
      </trkpt>
      <trkpt lat="43.37049" lon="-1.60597">
        <ele>78</ele>
        <time>2026-02-12T15:22:38.000Z</time>
      </trkpt>
      <trkpt lat="43.37098" lon="-1.60573">
        <ele>80</ele>
        <time>2026-02-12T15:22:47.000Z</time>
      </trkpt>
      <trkpt lat="43.37119" lon="-1.60555">
        <ele>82</ele>
        <time>2026-02-12T15:22:52.000Z</time>
      </trkpt>
      <trkpt lat="43.37125" lon="-1.60523">
        <ele>82</ele>
        <time>2026-02-12T15:22:56.000Z</time>
      </trkpt>
      <trkpt lat="43.37121" lon="-1.60481">
        <ele>81</ele>
        <time>2026-02-12T15:23:01.000Z</time>
      </trkpt>
      <trkpt lat="43.371" lon="-1.60356">
        <ele>80</ele>
        <time>2026-02-12T15:23:18.000Z</time>
      </trkpt>
      <trkpt lat="43.37111" lon="-1.60364">
        <ele>80</ele>
        <time>2026-02-12T15:23:20.000Z</time>
      </trkpt>
      <trkpt lat="43.37159" lon="-1.60437">
        <ele>87</ele>
        <time>2026-02-12T15:23:33.000Z</time>
      </trkpt>
      <trkpt lat="43.37197" lon="-1.6048">
        <ele>86</ele>
        <time>2026-02-12T15:23:42.000Z</time>
      </trkpt>
      <trkpt lat="43.37256" lon="-1.60529">
        <ele>87</ele>
        <time>2026-02-12T15:23:54.000Z</time>
      </trkpt>
      <trkpt lat="43.37291" lon="-1.60568">
        <ele>86</ele>
        <time>2026-02-12T15:24:02.000Z</time>
      </trkpt>
      <trkpt lat="43.37391" lon="-1.60695">
        <ele>77</ele>
        <time>2026-02-12T15:24:26.000Z</time>
      </trkpt>
      <trkpt lat="43.37433" lon="-1.6075">
        <ele>75</ele>
        <time>2026-02-12T15:24:36.000Z</time>
      </trkpt>
      <trkpt lat="43.37467" lon="-1.60688">
        <ele>72</ele>
        <time>2026-02-12T15:24:46.000Z</time>
      </trkpt>
      <trkpt lat="43.37483" lon="-1.60666">
        <ele>71</ele>
        <time>2026-02-12T15:24:50.000Z</time>
      </trkpt>
      <trkpt lat="43.37502" lon="-1.6065">
        <ele>68</ele>
        <time>2026-02-12T15:24:54.000Z</time>
      </trkpt>
      <trkpt lat="43.37523" lon="-1.60639">
        <ele>67</ele>
        <time>2026-02-12T15:24:58.000Z</time>
      </trkpt>
      <trkpt lat="43.37598" lon="-1.60619">
        <ele>66</ele>
        <time>2026-02-12T15:25:12.000Z</time>
      </trkpt>
      <trkpt lat="43.37627" lon="-1.60615">
        <ele>67</ele>
        <time>2026-02-12T15:25:17.000Z</time>
      </trkpt>
      <trkpt lat="43.37739" lon="-1.60611">
        <ele>67</ele>
        <time>2026-02-12T15:25:37.000Z</time>
      </trkpt>
      <trkpt lat="43.37757" lon="-1.60617">
        <ele>67</ele>
        <time>2026-02-12T15:25:40.000Z</time>
      </trkpt>
      <trkpt lat="43.37782" lon="-1.60629">
        <ele>68</ele>
        <time>2026-02-12T15:25:45.000Z</time>
      </trkpt>
      <trkpt lat="43.37807" lon="-1.60648">
        <ele>69</ele>
        <time>2026-02-12T15:25:50.000Z</time>
      </trkpt>
      <trkpt lat="43.37826" lon="-1.60653">
        <ele>70</ele>
        <time>2026-02-12T15:25:54.000Z</time>
      </trkpt>
      <trkpt lat="43.37842" lon="-1.60648">
        <ele>70</ele>
        <time>2026-02-12T15:25:57.000Z</time>
      </trkpt>
      <trkpt lat="43.37858" lon="-1.60636">
        <ele>70</ele>
        <time>2026-02-12T15:26:00.000Z</time>
      </trkpt>
      <trkpt lat="43.37885" lon="-1.6063">
        <ele>71</ele>
        <time>2026-02-12T15:26:05.000Z</time>
      </trkpt>
      <trkpt lat="43.37948" lon="-1.60619">
        <ele>75</ele>
        <time>2026-02-12T15:26:16.000Z</time>
      </trkpt>
      <trkpt lat="43.37972" lon="-1.60619">
        <ele>76</ele>
        <time>2026-02-12T15:26:20.000Z</time>
      </trkpt>
      <trkpt lat="43.37985" lon="-1.60617">
        <ele>77</ele>
        <time>2026-02-12T15:26:23.000Z</time>
      </trkpt>
      <trkpt lat="43.38067" lon="-1.60559">
        <ele>84</ele>
        <time>2026-02-12T15:26:39.000Z</time>
      </trkpt>
      <trkpt lat="43.38082" lon="-1.60559">
        <ele>85</ele>
        <time>2026-02-12T15:26:42.000Z</time>
      </trkpt>
      <trkpt lat="43.3807" lon="-1.60651">
        <ele>84</ele>
        <time>2026-02-12T15:26:54.000Z</time>
      </trkpt>
      <trkpt lat="43.38074" lon="-1.60737">
        <ele>83</ele>
        <time>2026-02-12T15:27:05.000Z</time>
      </trkpt>
      <trkpt lat="43.38072" lon="-1.60794">
        <ele>80</ele>
        <time>2026-02-12T15:27:12.000Z</time>
      </trkpt>
      <trkpt lat="43.38065" lon="-1.60831">
        <ele>79</ele>
        <time>2026-02-12T15:27:17.000Z</time>
      </trkpt>
      <trkpt lat="43.38051" lon="-1.60873">
        <ele>79</ele>
        <time>2026-02-12T15:27:23.000Z</time>
      </trkpt>
      <trkpt lat="43.3805" lon="-1.60899">
        <ele>78</ele>
        <time>2026-02-12T15:27:27.000Z</time>
      </trkpt>
      <trkpt lat="43.38055" lon="-1.6092">
        <ele>77</ele>
        <time>2026-02-12T15:27:29.000Z</time>
      </trkpt>
      <trkpt lat="43.38098" lon="-1.60992">
        <ele>78</ele>
        <time>2026-02-12T15:27:41.000Z</time>
      </trkpt>
      <trkpt lat="43.38114" lon="-1.61112">
        <ele>78</ele>
        <time>2026-02-12T15:27:57.000Z</time>
      </trkpt>
      <trkpt lat="43.38096" lon="-1.61353">
        <ele>78</ele>
        <time>2026-02-12T15:28:29.000Z</time>
      </trkpt>
      <trkpt lat="43.38086" lon="-1.61443">
        <ele>78</ele>
        <time>2026-02-12T15:28:40.000Z</time>
      </trkpt>
      <trkpt lat="43.38084" lon="-1.61464">
        <ele>78</ele>
        <time>2026-02-12T15:28:43.000Z</time>
      </trkpt>
      <trkpt lat="43.38082" lon="-1.61527">
        <ele>78</ele>
        <time>2026-02-12T15:28:51.000Z</time>
      </trkpt>
      <trkpt lat="43.38088" lon="-1.61593">
        <ele>76</ele>
        <time>2026-02-12T15:29:00.000Z</time>
      </trkpt>
      <trkpt lat="43.38102" lon="-1.61637">
        <ele>74</ele>
        <time>2026-02-12T15:29:06.000Z</time>
      </trkpt>
      <trkpt lat="43.38131" lon="-1.61673">
        <ele>74</ele>
        <time>2026-02-12T15:29:13.000Z</time>
      </trkpt>
      <trkpt lat="43.38303" lon="-1.6184">
        <ele>79</ele>
        <time>2026-02-12T15:29:50.000Z</time>
      </trkpt>
      <trkpt lat="43.38335" lon="-1.61855">
        <ele>78</ele>
        <time>2026-02-12T15:29:56.000Z</time>
      </trkpt>
      <trkpt lat="43.38354" lon="-1.61859">
        <ele>78</ele>
        <time>2026-02-12T15:30:00.000Z</time>
      </trkpt>
      <trkpt lat="43.38452" lon="-1.61846">
        <ele>78</ele>
        <time>2026-02-12T15:30:17.000Z</time>
      </trkpt>
      <trkpt lat="43.38468" lon="-1.61846">
        <ele>78</ele>
        <time>2026-02-12T15:30:20.000Z</time>
      </trkpt>
      <trkpt lat="43.38487" lon="-1.6185">
        <ele>78</ele>
        <time>2026-02-12T15:30:24.000Z</time>
      </trkpt>
      <trkpt lat="43.38521" lon="-1.61862">
        <ele>77</ele>
        <time>2026-02-12T15:30:30.000Z</time>
      </trkpt>
      <trkpt lat="43.38555" lon="-1.61875">
        <ele>76</ele>
        <time>2026-02-12T15:30:36.000Z</time>
      </trkpt>
      <trkpt lat="43.38566" lon="-1.61881">
        <ele>75</ele>
        <time>2026-02-12T15:30:38.000Z</time>
      </trkpt>
      <trkpt lat="43.38584" lon="-1.61895">
        <ele>75</ele>
        <time>2026-02-12T15:30:42.000Z</time>
      </trkpt>
      <trkpt lat="43.3862" lon="-1.61929">
        <ele>73</ele>
        <time>2026-02-12T15:30:50.000Z</time>
      </trkpt>
      <trkpt lat="43.38636" lon="-1.61948">
        <ele>71</ele>
        <time>2026-02-12T15:30:54.000Z</time>
      </trkpt>
      <trkpt lat="43.3865" lon="-1.61967">
        <ele>69</ele>
        <time>2026-02-12T15:30:57.000Z</time>
      </trkpt>
      <trkpt lat="43.38666" lon="-1.61994">
        <ele>67</ele>
        <time>2026-02-12T15:31:02.000Z</time>
      </trkpt>
      <trkpt lat="43.38687" lon="-1.62043">
        <ele>64</ele>
        <time>2026-02-12T15:31:09.000Z</time>
      </trkpt>
      <trkpt lat="43.38697" lon="-1.62075">
        <ele>63</ele>
        <time>2026-02-12T15:31:13.000Z</time>
      </trkpt>
      <trkpt lat="43.3871" lon="-1.62133">
        <ele>61</ele>
        <time>2026-02-12T15:31:21.000Z</time>
      </trkpt>
      <trkpt lat="43.3874" lon="-1.62345">
        <ele>60</ele>
        <time>2026-02-12T15:31:49.000Z</time>
      </trkpt>
      <trkpt lat="43.38744" lon="-1.62391">
        <ele>61</ele>
        <time>2026-02-12T15:31:55.000Z</time>
      </trkpt>
      <trkpt lat="43.3875" lon="-1.6242">
        <ele>62</ele>
        <time>2026-02-12T15:31:59.000Z</time>
      </trkpt>
      <trkpt lat="43.38756" lon="-1.62436">
        <ele>62</ele>
        <time>2026-02-12T15:32:01.000Z</time>
      </trkpt>
      <trkpt lat="43.38767" lon="-1.62445">
        <ele>62</ele>
        <time>2026-02-12T15:32:04.000Z</time>
      </trkpt>
      <trkpt lat="43.3878" lon="-1.62452">
        <ele>62</ele>
        <time>2026-02-12T15:32:06.000Z</time>
      </trkpt>
      <trkpt lat="43.3882" lon="-1.62464">
        <ele>61</ele>
        <time>2026-02-12T15:32:13.000Z</time>
      </trkpt>
      <trkpt lat="43.38852" lon="-1.62477">
        <ele>60</ele>
        <time>2026-02-12T15:32:19.000Z</time>
      </trkpt>
      <trkpt lat="43.38864" lon="-1.62491">
        <ele>61</ele>
        <time>2026-02-12T15:32:22.000Z</time>
      </trkpt>
      <trkpt lat="43.38873" lon="-1.62537">
        <ele>63</ele>
        <time>2026-02-12T15:32:28.000Z</time>
      </trkpt>
      <trkpt lat="43.3887" lon="-1.6261">
        <ele>67</ele>
        <time>2026-02-12T15:32:38.000Z</time>
      </trkpt>
      <trkpt lat="43.38875" lon="-1.62634">
        <ele>67</ele>
        <time>2026-02-12T15:32:41.000Z</time>
      </trkpt>
      <trkpt lat="43.38886" lon="-1.62651">
        <ele>66</ele>
        <time>2026-02-12T15:32:44.000Z</time>
      </trkpt>
      <trkpt lat="43.38901" lon="-1.62664">
        <ele>64</ele>
        <time>2026-02-12T15:32:47.000Z</time>
      </trkpt>
      <trkpt lat="43.38986" lon="-1.62714">
        <ele>60</ele>
        <time>2026-02-12T15:33:04.000Z</time>
      </trkpt>
      <trkpt lat="43.39069" lon="-1.62811">
        <ele>65</ele>
        <time>2026-02-12T15:33:23.000Z</time>
      </trkpt>
      <trkpt lat="43.39102" lon="-1.62869">
        <ele>64</ele>
        <time>2026-02-12T15:33:32.000Z</time>
      </trkpt>
      <trkpt lat="43.39171" lon="-1.63087">
        <ele>56</ele>
        <time>2026-02-12T15:34:03.000Z</time>
      </trkpt>
      <trkpt lat="43.39176" lon="-1.63124">
        <ele>58</ele>
        <time>2026-02-12T15:34:08.000Z</time>
      </trkpt>
      <trkpt lat="43.39173" lon="-1.63182">
        <ele>61</ele>
        <time>2026-02-12T15:34:16.000Z</time>
      </trkpt>
      <trkpt lat="43.39176" lon="-1.63221">
        <ele>62</ele>
        <time>2026-02-12T15:34:21.000Z</time>
      </trkpt>
      <trkpt lat="43.39199" lon="-1.63367">
        <ele>57</ele>
        <time>2026-02-12T15:34:40.000Z</time>
      </trkpt>
      <trkpt lat="43.39211" lon="-1.63432">
        <ele>59</ele>
        <time>2026-02-12T15:34:49.000Z</time>
      </trkpt>
      <trkpt lat="43.39235" lon="-1.63583">
        <ele>61</ele>
        <time>2026-02-12T15:35:09.000Z</time>
      </trkpt>
      <trkpt lat="43.39233" lon="-1.63599">
        <ele>61</ele>
        <time>2026-02-12T15:35:11.000Z</time>
      </trkpt>
      <trkpt lat="43.39229" lon="-1.63618">
        <ele>61</ele>
        <time>2026-02-12T15:35:13.000Z</time>
      </trkpt>
      <trkpt lat="43.39208" lon="-1.63665">
        <ele>60</ele>
        <time>2026-02-12T15:35:20.000Z</time>
      </trkpt>
      <trkpt lat="43.39191" lon="-1.63689">
        <ele>59</ele>
        <time>2026-02-12T15:35:25.000Z</time>
      </trkpt>
      <trkpt lat="43.38936" lon="-1.63916">
        <ele>45</ele>
        <time>2026-02-12T15:36:19.000Z</time>
      </trkpt>
      <trkpt lat="43.38919" lon="-1.63936">
        <ele>44</ele>
        <time>2026-02-12T15:36:23.000Z</time>
      </trkpt>
      <trkpt lat="43.38907" lon="-1.63955">
        <ele>44</ele>
        <time>2026-02-12T15:36:26.000Z</time>
      </trkpt>
      <trkpt lat="43.38899" lon="-1.63974">
        <ele>43</ele>
        <time>2026-02-12T15:36:29.000Z</time>
      </trkpt>
      <trkpt lat="43.38889" lon="-1.64006">
        <ele>43</ele>
        <time>2026-02-12T15:36:33.000Z</time>
      </trkpt>
      <trkpt lat="43.38886" lon="-1.64034">
        <ele>41</ele>
        <time>2026-02-12T15:36:37.000Z</time>
      </trkpt>
      <trkpt lat="43.38889" lon="-1.6413">
        <ele>40</ele>
        <time>2026-02-12T15:36:49.000Z</time>
      </trkpt>
      <trkpt lat="43.38888" lon="-1.64153">
        <ele>41</ele>
        <time>2026-02-12T15:36:52.000Z</time>
      </trkpt>
      <trkpt lat="43.38886" lon="-1.64171">
        <ele>41</ele>
        <time>2026-02-12T15:36:55.000Z</time>
      </trkpt>
      <trkpt lat="43.38878" lon="-1.64198">
        <ele>39</ele>
        <time>2026-02-12T15:36:59.000Z</time>
      </trkpt>
      <trkpt lat="43.38836" lon="-1.6431">
        <ele>34</ele>
        <time>2026-02-12T15:37:15.000Z</time>
      </trkpt>
      <trkpt lat="43.38832" lon="-1.64332">
        <ele>34</ele>
        <time>2026-02-12T15:37:18.000Z</time>
      </trkpt>
      <trkpt lat="43.38833" lon="-1.64343">
        <ele>34</ele>
        <time>2026-02-12T15:37:19.000Z</time>
      </trkpt>
      <trkpt lat="43.3884" lon="-1.64361">
        <ele>35</ele>
        <time>2026-02-12T15:37:22.000Z</time>
      </trkpt>
      <trkpt lat="43.38898" lon="-1.64454">
        <ele>30</ele>
        <time>2026-02-12T15:37:38.000Z</time>
      </trkpt>
      <trkpt lat="43.38902" lon="-1.64498">
        <ele>30</ele>
        <time>2026-02-12T15:37:43.000Z</time>
      </trkpt>
      <trkpt lat="43.38866" lon="-1.64741">
        <ele>19</ele>
        <time>2026-02-12T15:38:15.000Z</time>
      </trkpt>
      <trkpt lat="43.38857" lon="-1.64804">
        <ele>13</ele>
        <time>2026-02-12T15:38:24.000Z</time>
      </trkpt>
      <trkpt lat="43.38856" lon="-1.64828">
        <ele>10</ele>
        <time>2026-02-12T15:38:27.000Z</time>
      </trkpt>
      <trkpt lat="43.38868" lon="-1.64904">
        <ele>9</ele>
        <time>2026-02-12T15:38:37.000Z</time>
      </trkpt>
      <trkpt lat="43.38876" lon="-1.64932">
        <ele>10</ele>
        <time>2026-02-12T15:38:41.000Z</time>
      </trkpt>
      <trkpt lat="43.38882" lon="-1.64942">
        <ele>10</ele>
        <time>2026-02-12T15:38:43.000Z</time>
      </trkpt>
      <trkpt lat="43.38892" lon="-1.6495">
        <ele>11</ele>
        <time>2026-02-12T15:38:45.000Z</time>
      </trkpt>
      <trkpt lat="43.38912" lon="-1.64958">
        <ele>11</ele>
        <time>2026-02-12T15:38:48.000Z</time>
      </trkpt>
      <trkpt lat="43.38908" lon="-1.64982">
        <ele>12</ele>
        <time>2026-02-12T15:38:51.000Z</time>
      </trkpt>
      <trkpt lat="43.38905" lon="-1.64994">
        <ele>12</ele>
        <time>2026-02-12T15:38:53.000Z</time>
      </trkpt>
      <trkpt lat="43.38899" lon="-1.65008">
        <ele>13</ele>
        <time>2026-02-12T15:38:55.000Z</time>
      </trkpt>
      <trkpt lat="43.38881" lon="-1.65041">
        <ele>15</ele>
        <time>2026-02-12T15:39:01.000Z</time>
      </trkpt>
      <trkpt lat="43.38863" lon="-1.65065">
        <ele>17</ele>
        <time>2026-02-12T15:39:05.000Z</time>
      </trkpt>
      <trkpt lat="43.38839" lon="-1.65118">
        <ele>21</ele>
        <time>2026-02-12T15:39:13.000Z</time>
      </trkpt>
      <trkpt lat="43.38831" lon="-1.6514">
        <ele>21</ele>
        <time>2026-02-12T15:39:16.000Z</time>
      </trkpt>
      <trkpt lat="43.38822" lon="-1.65167">
        <ele>22</ele>
        <time>2026-02-12T15:39:20.000Z</time>
      </trkpt>
      <trkpt lat="43.38815" lon="-1.65198">
        <ele>23</ele>
        <time>2026-02-12T15:39:24.000Z</time>
      </trkpt>
      <trkpt lat="43.38815" lon="-1.65213">
        <ele>23</ele>
        <time>2026-02-12T15:39:26.000Z</time>
      </trkpt>
      <trkpt lat="43.38784" lon="-1.65217">
        <ele>22</ele>
        <time>2026-02-12T15:39:32.000Z</time>
      </trkpt>
      <trkpt lat="43.38772" lon="-1.65221">
        <ele>22</ele>
        <time>2026-02-12T15:39:34.000Z</time>
      </trkpt>
      <trkpt lat="43.38754" lon="-1.65231">
        <ele>22</ele>
        <time>2026-02-12T15:39:37.000Z</time>
      </trkpt>
      <trkpt lat="43.38738" lon="-1.6525">
        <ele>21</ele>
        <time>2026-02-12T15:39:41.000Z</time>
      </trkpt>
      <trkpt lat="43.38722" lon="-1.65273">
        <ele>19</ele>
        <time>2026-02-12T15:39:45.000Z</time>
      </trkpt>
      <trkpt lat="43.38716" lon="-1.65302">
        <ele>18</ele>
        <time>2026-02-12T15:39:49.000Z</time>
      </trkpt>
      <trkpt lat="43.38712" lon="-1.6534">
        <ele>16</ele>
        <time>2026-02-12T15:39:54.000Z</time>
      </trkpt>
      <trkpt lat="43.38708" lon="-1.65381">
        <ele>14</ele>
        <time>2026-02-12T15:40:00.000Z</time>
      </trkpt>
      <trkpt lat="43.38699" lon="-1.65432">
        <ele>10</ele>
        <time>2026-02-12T15:40:06.000Z</time>
      </trkpt>
      <trkpt lat="43.38682" lon="-1.65473">
        <ele>7</ele>
        <time>2026-02-12T15:40:12.000Z</time>
      </trkpt>
      <trkpt lat="43.38401" lon="-1.65855">
        <ele>4</ele>
        <time>2026-02-12T15:41:23.000Z</time>
      </trkpt>
      <trkpt lat="43.38395" lon="-1.6586">
        <ele>4</ele>
        <time>2026-02-12T15:41:24.000Z</time>
      </trkpt>
      <trkpt lat="43.38349" lon="-1.6592">
        <ele>5</ele>
        <time>2026-02-12T15:41:35.000Z</time>
      </trkpt>
      <trkpt lat="43.38342" lon="-1.65926">
        <ele>6</ele>
        <time>2026-02-12T15:41:37.000Z</time>
      </trkpt>
      <trkpt lat="43.38344" lon="-1.65934">
        <ele>6</ele>
        <time>2026-02-12T15:41:38.000Z</time>
      </trkpt>
      <trkpt lat="43.38342" lon="-1.65941">
        <ele>6</ele>
        <time>2026-02-12T15:41:39.000Z</time>
      </trkpt>
      <trkpt lat="43.38336" lon="-1.65944">
        <ele>6</ele>
        <time>2026-02-12T15:41:40.000Z</time>
      </trkpt>
      <trkpt lat="43.3833" lon="-1.65941">
        <ele>6</ele>
        <time>2026-02-12T15:41:41.000Z</time>
      </trkpt>
      <trkpt lat="43.38328" lon="-1.65932">
        <ele>6</ele>
        <time>2026-02-12T15:41:42.000Z</time>
      </trkpt>
      <trkpt lat="43.3833" lon="-1.65928">
        <ele>6</ele>
        <time>2026-02-12T15:41:43.000Z</time>
      </trkpt>
      <trkpt lat="43.38324" lon="-1.65923">
        <ele>6</ele>
        <time>2026-02-12T15:41:44.000Z</time>
      </trkpt>
      <trkpt lat="43.38309" lon="-1.65902">
        <ele>5</ele>
        <time>2026-02-12T15:41:48.000Z</time>
      </trkpt>
      <trkpt lat="43.38305" lon="-1.65905">
        <ele>4</ele>
        <time>2026-02-12T15:41:49.000Z</time>
      </trkpt>
    </trkseg>
  </trk>
</gpx>